GFSCGP_700_rhum_039.txt.gz
RH
43 38 43 43 35 39 41 39 36 32 33 35 30 33 33 38 63 58 42 30 27 27 28 33 39 42 44 41 43 49 57 59 65 70 72 74 71 73 74 64 61 63 59 54
42 38 42 40 40 38 40 35 33 28 31 33 28 28 36 33 33 42 44 47 50 39 37 29 29 31 36 43 43 47 51 61 68 70 77 80 80 77 64 56 51 52 54 42
44 43 44 42 42 40 37 36 35 34 32 28 26 29 34 34 37 51 51 57 56 52 52 48 44 46 45 44 44 51 56 64 69 75 72 77 75 59 58 56 51 50 47 49
43 39 40 42 39 35 33 35 38 37 38 23 27 30 29 33 34 44 44 54 48 46 51 59 48 46 51 51 53 62 67 63 66 64 66 70 73 61 68 56 46 47 49 50
38 42 46 43 37 38 35 37 43 39 36 36 35 32 26 28 33 28 32 45 50 48 50 57 56 56 63 57 60 70 79 68 66 67 66 72 62 56 65 52 49 47 50 54
35 38 48 44 37 37 37 38 40 33 35 44 40 37 31 29 28 28 29 33 43 47 48 46 49 55 56 58 57 64 77 80 76 59 65 67 60 57 59 52 50 53 59 67
33 39 40 39 38 35 35 39 44 48 58 52 40 44 30 27 30 30 33 32 33 47 50 48 52 52 56 59 60 74 79 74 67 61 67 61 64 64 65 57 55 60 69 77
36 39 36 37 37 38 40 42 40 50 64 51 42 44 32 28 24 21 30 33 40 39 40 54 57 57 58 55 58 72 69 68 65 60 55 56 65 60 66 73 64 70 93 97
34 40 36 35 39 41 42 40 38 39 60 57 40 35 26 20 24 25 26 31 33 36 38 42 51 65 76 70 68 76 63 66 55 51 54 57 63 65 67 76 89 100 99 100
30 32 30 29 33 37 40 40 40 39 50 59 42 35 30 33 33 29 28 32 37 42 39 41 45 61 80 79 58 52 58 50 52 56 59 61 68 70 73 94 99 100 99 99
30 30 28 28 32 28 32 40 38 34 36 55 66 37 28 29 15 20 18 17 14 12 24 24 22 21 19 19 24 30 29 28 33 46 53 56 60 62 73 89 96 99 99 88
27 27 26 26 28 30 45 37 37 34 35 39 42 34 28 29 29 25 22 25 21 19 18 19 23 25 28 31 32 61 60 65 66 70 74 73 74 79 95 100 90 98 88 99
26 30 34 32 31 36 38 38 41 38 39 36 48 34 32 28 28 31 30 27 27 29 28 28 34 48 60 63 54 72 77 84 85 80 79 76 79 80 81 94 99 97 85 91
27 28 29 35 31 29 36 36 39 39 38 34 33 33 33 34 33 34 30 28 30 31 35 40 52 54 53 66 61 66 72 78 87 78 84 81 86 79 89 95 98 81 95 98
32 34 34 34 33 34 36 34 41 44 42 40 34 31 28 27 31 31 28 29 32 32 35 39 40 47 47 56 65 60 72 79 81 84 80 72 87 82 97 96 83 99 89 96
36 39 40 38 37 34 32 30 29 39 43 42 41 36 31 32 33 33 31 30 29 32 35 36 38 42 43 48 47 54 74 74 78 75 84 84 84 92 98 99 99 98 100 100
42 40 38 38 37 40 42 36 30 29 37 40 42 38 37 37 32 32 31 31 34 37 36 36 27 26 32 34 38 38 41 45 44 54 73 80 94 99 99 99 98 99 99 98
38 38 38 37 36 64 30 29 28 25 24 37 36 34 31 34 35 35 34 36 36 29 26 26 31 40 45 50 50 52 51 50 56 66 73 81 100 100 100 100 99 100 97 95
43 44 40 45 46 39 36 38 36 31 30 28 30 32 34 38 37 36 31 28 30 29 30 35 41 48 53 50 46 47 50 52 58 69 77 82 99 100 100 98 98 97 95 92
51 49 44 55 57 69 45 34 37 33 32 33 34 33 33 34 33 31 33 34 31 31 32 33 34 39 42 47 47 43 44 53 66 75 88 99 99 99 98 98 97 99 94 75
62 61 61 57 61 57 50 44 35 36 32 30 31 37 37 37 39 41 35 33 31 32 33 38 43 47 50 46 48 51 58 75 85 100 100 99 98 95 97 96 98 87 80 68
51 62 69 71 71 64 53 44 40 34 34 31 34 34 40 47 48 38 36 34 34 34 37 45 49 51 54 51 70 89 95 94 96 97 96 94 96 98 98 87 82 81 64 44
44 33 32 53 64 58 46 43 39 38 37 42 38 40 45 47 42 38 37 38 38 42 47 53 60 72 82 97 99 100 99 99 100 99 100 100 94 81 78 72 59 48 40 28
42 36 50 46 43 42 40 38 39 42 42 42 42 44 46 48 43 45 52 49 48 53 62 71 74 91 100 100 100 100 100 98 99 90 81 78 76 60 43 37 29 21 20 21
39 36 42 41 38 38 40 42 44 40 39 42 47 49 53 55 57 62 69 56 56 60 65 75 88 97 100 100 98 84 80 79 76 73 62 49 32 22 20 20 21 22 21 24
26 19 26 18 19 32 39 45 48 50 52 54 55 58 61 64 69 76 64 63 67 69 74 83 91 90 84 75 74 72 68 53 37 25 22 22 22 21 19 17 15 17 18 20

GFSCGP_700_rhum_042.txt.gz
RH
41 42 39 46 31 41 40 38 37 36 36 35 33 34 37 38 46 38 24 27 34 41 44 42 40 45 48 50 49 58 54 62 64 67 74 77 85 87 80 76 77 70 78 83
41 41 43 44 34 42 40 35 36 32 36 33 32 30 33 38 33 35 35 36 28 30 30 36 36 36 37 42 42 42 47 56 68 72 74 75 79 79 71 61 73 75 77 83
41 44 40 44 44 41 41 36 35 36 32 32 26 28 27 33 36 38 38 37 51 46 49 40 34 33 40 42 40 44 48 54 61 65 66 65 68 72 67 83 90 77 72 69
40 42 41 44 42 41 38 35 36 41 36 35 33 31 27 28 30 34 34 30 40 48 47 54 53 46 52 62 63 60 58 63 61 59 56 62 70 73 79 91 92 76 61 53
40 41 45 43 39 40 34 36 40 40 35 37 34 36 29 26 32 31 31 28 30 40 46 47 49 58 61 67 64 66 64 73 70 65 64 68 69 79 80 86 79 73 54 47
34 38 41 47 43 40 39 38 37 41 37 47 36 40 34 30 27 25 27 29 28 33 38 45 52 61 69 64 63 59 57 59 64 72 72 67 70 74 75 82 74 67 55 50
33 36 37 44 43 42 38 36 44 49 59 55 39 49 30 26 30 30 31 31 28 30 34 38 46 50 57 64 66 64 60 65 71 74 72 66 73 76 73 75 72 74 62 57
33 34 35 39 40 39 40 42 43 50 62 46 41 43 28 29 30 28 29 28 33 33 36 38 45 56 62 62 65 63 62 75 78 76 70 67 70 69 70 72 77 77 72 75
35 37 37 38 39 43 40 40 40 40 55 62 39 34 28 22 33 36 29 29 32 32 37 40 48 58 61 62 57 61 72 81 74 78 68 58 70 64 69 78 84 82 83 86
34 33 36 36 36 42 42 42 41 43 52 53 44 35 25 22 28 21 25 31 36 39 42 45 45 44 54 53 53 62 57 59 65 63 62 58 58 66 68 66 59 60 74 88
30 30 31 32 28 27 35 40 43 39 37 54 64 35 26 27 19 22 20 17 14 14 25 34 36 28 17 16 16 27 32 42 42 40 39 43 46 57 71 80 84 74 77 79
29 31 31 29 29 26 30 34 39 39 40 40 45 36 30 29 28 30 24 26 24 20 17 14 16 23 27 31 36 43 42 50 64 71 70 71 77 86 89 88 76 68 71 87
28 31 31 29 30 28 33 38 42 41 41 40 52 38 32 32 29 29 29 32 30 26 24 25 26 30 43 60 69 80 67 57 80 84 78 88 88 83 85 86 87 80 91 97
27 27 28 32 26 25 30 32 35 40 43 40 40 37 37 35 34 33 30 29 27 29 29 27 28 30 52 67 61 58 57 60 67 69 78 87 90 94 84 91 90 85 97 89
31 31 30 27 27 28 31 32 36 39 36 42 39 41 39 32 32 32 31 28 27 29 32 30 36 47 44 46 48 51 53 56 61 68 73 82 84 84 86 85 91 100 88 90
31 37 33 31 32 35 35 33 36 33 34 42 45 45 42 37 32 30 32 32 30 30 31 34 36 38 40 43 39 32 36 36 34 49 69 49 54 68 80 86 93 92 98 73
31 35 39 39 39 39 40 37 35 34 32 30 31 33 35 41 39 35 33 32 31 31 36 39 38 36 32 25 28 31 34 38 44 45 44 45 64 70 74 92 99 96 98 100
32 33 42 40 42 57 37 34 33 32 34 36 35 33 31 37 38 34 34 34 35 37 37 31 27 26 27 31 36 39 44 46 46 49 57 66 73 86 100 99 98 100 99 97
40 35 44 41 43 39 37 32 23 29 29 29 25 26 32 39 34 37 38 38 36 30 30 30 29 30 32 33 35 40 47 50 50 56 65 73 99 100 99 95 100 98 95 96
45 43 41 44 46 68 40 38 37 38 42 34 31 31 33 34 40 40 38 32 33 35 32 30 30 31 34 40 44 46 44 43 49 59 66 86 96 100 98 97 98 97 98 98
46 45 46 44 46 48 46 46 42 41 30 29 29 31 35 37 37 35 37 40 38 35 31 31 32 37 44 45 43 44 45 54 72 82 85 98 99 100 99 95 94 100 93 78
44 49 53 53 59 63 50 50 48 39 38 34 33 32 34 38 38 41 48 41 36 33 32 33 36 38 40 45 51 56 69 84 92 96 100 100 94 92 95 95 85 74 60 37
54 47 51 53 51 46 41 40 43 46 48 37 37 40 38 40 48 51 42 38 36 39 40 40 41 45 50 59 68 72 97 100 100 100 92 79 84 77 73 66 44 24 19 18
47 46 55 50 43 34 30 42 37 35 41 42 42 40 40 44 46 44 42 41 45 51 52 50 53 60 65 77 97 100 100 98 72 68 72 72 63 40 24 20 19 18 17 16
46 46 44 41 39 37 24 25 32 31 36 41 42 37 39 45 49 53 54 57 62 68 60 60 67 74 84 97 97 87 68 66 67 60 41 27 23 21 19 17 16 16 17 19
51 47 44 42 36 26 23 26 29 34 41 40 38 42 49 53 56 59 62 67 75 72 68 76 79 85 91 81 68 66 62 53 37 28 25 22 19 18 18 18 19 21 21 18

GFSCGP_700_rhum_045.txt.gz
RH
43 45 39 46 28 37 38 36 34 41 37 36 34 33 36 40 37 25 30 36 37 30 41 49 53 56 59 63 60 60 62 65 64 66 70 74 76 77 78 81 80 77 74 77
44 41 38 45 37 43 40 38 36 34 35 33 32 30 29 30 35 35 26 30 31 30 32 37 40 40 43 54 59 54 57 62 69 70 72 73 74 76 74 66 68 80 82 87
38 41 43 46 46 45 40 37 39 40 35 32 29 25 25 24 29 39 37 35 33 30 31 30 31 34 37 36 37 41 47 54 66 72 71 69 62 67 70 81 86 80 71 68
41 41 43 47 46 45 43 38 37 40 37 33 31 29 25 25 26 28 34 36 44 38 47 42 38 37 44 52 50 47 52 55 60 68 65 62 64 69 85 90 94 92 82 72
40 41 43 44 42 43 42 37 38 39 38 38 34 37 29 29 24 22 22 28 31 40 52 51 50 49 52 59 68 68 64 66 73 75 68 70 73 76 80 87 98 97 90 85
36 36 36 43 45 40 42 41 40 38 41 44 35 37 32 29 27 26 25 25 28 31 38 45 50 57 63 68 67 72 68 76 77 82 82 77 82 86 82 85 83 82 88 85
35 33 34 40 46 45 43 42 44 47 53 48 43 48 32 28 28 29 29 29 30 30 32 34 44 50 58 62 59 67 72 70 72 72 73 74 74 73 78 85 79 75 77 77
35 34 32 34 40 42 40 40 40 46 50 42 42 40 26 26 26 27 28 26 26 31 30 31 34 41 54 62 68 72 75 78 82 82 76 71 69 70 77 80 74 75 76 80
34 34 37 37 39 45 45 45 41 40 53 53 38 34 27 22 33 36 34 28 26 29 31 34 37 38 47 63 63 69 77 88 82 83 80 74 76 65 63 71 76 77 85 93
34 35 37 39 42 46 46 43 45 44 54 56 43 37 24 24 21 22 21 27 32 33 34 35 36 34 46 61 66 75 73 70 75 72 76 65 65 62 60 63 70 80 95 97
34 33 34 38 40 31 40 48 44 41 40 46 46 33 28 26 26 28 27 24 18 14 23 28 33 38 31 33 42 47 51 36 36 45 43 42 43 49 51 65 85 97 98 97
32 32 32 30 31 31 30 35 38 40 42 40 44 38 28 26 31 29 29 24 28 22 18 10 9 11 18 21 22 21 23 32 43 50 59 67 76 79 92 92 97 98 97 98
31 34 33 33 33 34 33 29 28 35 41 41 55 37 32 33 34 34 30 30 28 30 26 23 23 25 27 31 43 68 72 66 66 61 60 66 77 82 96 96 92 97 99 99
30 30 31 33 30 29 29 24 26 39 43 41 40 35 32 34 38 37 34 32 29 30 31 27 27 29 37 50 75 80 58 53 48 54 61 63 62 71 89 90 94 97 100 98
30 32 31 28 28 27 27 24 29 37 36 40 36 37 38 38 32 31 31 35 30 29 30 31 30 31 34 41 45 43 45 46 50 47 52 62 65 75 78 74 69 72 84 84
30 31 31 30 30 31 29 29 33 35 35 38 38 34 31 34 38 36 32 30 33 32 29 32 34 37 41 48 50 49 44 31 29 32 35 36 41 48 50 49 63 100 99 95
35 32 34 38 35 36 42 33 36 35 33 33 33 29 31 31 36 35 37 37 34 32 31 32 35 39 41 40 35 27 25 26 28 34 43 49 50 50 54 67 78 98 96 96
48 43 42 39 44 64 36 34 36 37 36 34 30 31 34 37 39 38 37 36 34 33 35 38 39 38 31 28 28 26 27 31 36 39 45 49 52 59 68 84 97 98 99 99
50 48 48 44 46 38 38 38 38 36 33 29 28 29 30 30 34 42 42 39 39 40 37 35 32 31 31 27 27 28 32 40 45 45 46 50 56 61 70 96 100 99 95 96
49 52 52 47 45 62 38 39 37 37 36 26 31 29 29 31 39 39 43 42 40 35 31 34 35 30 28 28 30 34 36 37 39 44 52 59 61 61 72 82 88 94 92 91
53 56 53 49 44 40 40 40 42 42 26 33 36 28 30 31 36 42 43 39 34 37 39 36 31 30 30 33 36 38 41 45 50 59 67 63 62 76 78 82 80 82 76 66
48 54 51 48 48 51 40 41 44 34 34 41 40 34 31 33 40 41 37 37 42 43 37 33 33 34 37 40 45 49 52 58 64 70 70 64 59 61 67 66 62 51 31 19
59 49 44 41 43 41 38 37 40 37 30 40 47 37 34 35 38 39 40 48 46 40 37 38 41 44 48 52 56 59 61 69 77 70 60 56 57 55 47 33 23 19 16 15
60 52 50 45 43 41 40 44 44 34 30 36 42 39 40 39 41 43 51 48 44 44 46 50 56 57 59 64 64 65 75 85 63 57 54 51 40 29 24 19 16 16 17 18
58 55 52 46 44 43 41 38 38 37 26 34 40 45 44 45 47 52 51 51 54 56 59 66 73 68 74 75 79 85 79 64 59 54 42 31 25 20 18 18 19 22 25 28
63 56 52 46 43 44 41 42 43 27 25 30 34 42 45 46 46 50 51 56 60 64 70 80 82 80 83 87 92 78 66 59 49 35 29 24 19 19 21 24 30 34 34 30

GFSCGP_700_rhum_048.txt.gz
RH
36 48 39 32 35 32 34 31 27 34 42 48 42 37 40 34 42 25 49 47 34 35 45 50 54 55 56 52 46 47 51 57 66 53 53 55 53 63 67 65 64 64 68 70
44 45 43 37 42 34 44 34 31 38 35 34 31 30 33 30 34 32 29 35 36 35 42 45 44 46 50 58 62 62 62 63 65 65 67 71 77 81 82 80 79 77 78 79
40 41 42 38 43 46 45 35 35 34 39 32 32 28 29 26 32 34 24 31 34 31 36 39 39 38 42 43 50 59 67 68 70 73 75 76 77 75 79 79 82 77 77 93
42 44 42 47 44 45 40 41 41 40 35 28 30 24 25 27 26 30 33 32 28 29 31 32 33 35 36 40 47 55 59 62 69 74 75 76 78 79 83 88 95 94 90 81
39 40 41 45 42 47 38 41 43 42 35 34 32 29 26 27 22 22 26 33 37 41 38 44 34 32 35 42 46 49 52 54 56 61 70 78 78 77 78 82 88 87 95 93
39 40 45 42 45 42 46 44 45 43 39 37 28 29 23 24 26 26 33 29 31 37 38 45 49 48 45 47 58 65 61 60 63 67 78 78 77 82 84 87 87 88 89 96
41 42 44 34 48 47 47 42 37 41 41 38 41 35 26 29 31 27 26 29 28 28 34 36 46 51 56 60 62 64 69 74 77 79 84 88 77 83 84 87 86 87 89 86
35 34 42 36 40 40 43 39 38 45 41 32 47 32 27 28 27 25 24 27 28 28 29 34 36 40 50 57 63 69 73 78 82 84 85 89 90 80 86 89 81 81 94 93
32 30 34 33 35 42 48 45 41 46 42 45 32 32 28 24 23 26 31 31 24 26 28 31 35 36 42 55 62 68 72 77 82 87 91 90 89 87 80 84 81 77 97 91
35 31 38 41 42 40 47 46 45 43 46 42 30 30 22 27 28 21 24 28 33 30 30 31 31 33 34 39 51 68 72 79 85 86 86 84 83 85 80 75 66 66 70 74
35 34 46 46 51 42 50 48 45 43 42 37 36 28 30 28 30 30 31 28 23 15 25 33 32 34 36 37 47 64 69 76 70 69 77 52 44 40 42 46 56 57 63 74
39 38 36 38 42 41 39 38 43 38 35 41 39 33 30 31 29 31 31 28 27 25 20 12 11 33 37 37 42 51 58 65 62 48 32 42 49 60 70 76 80 81 88 99
42 40 35 37 39 35 38 40 37 40 35 37 51 36 30 30 30 28 34 31 32 30 28 22 12 13 17 20 22 21 23 27 37 48 54 56 56 59 67 74 75 90 98 99
28 34 34 33 29 30 40 38 37 37 40 35 41 33 35 34 34 35 33 36 33 33 34 30 25 25 27 29 32 34 38 44 51 47 48 46 49 52 56 60 69 80 92 95
36 36 37 32 30 28 29 28 35 35 37 34 37 35 36 36 37 37 23 29 32 34 31 31 30 30 30 31 38 50 63 65 46 44 43 52 60 67 67 78 80 83 85 71
34 38 40 39 35 34 31 30 30 35 31 36 38 34 36 38 31 33 31 24 31 28 30 30 32 30 33 36 40 49 48 48 56 62 44 33 33 35 39 44 47 51 52 61
43 41 42 37 39 41 46 32 37 36 33 33 36 36 36 40 34 34 35 35 31 34 32 32 31 37 38 41 46 51 52 38 27 27 27 30 34 38 43 46 50 56 65 72
63 45 50 40 43 74 34 35 28 34 37 39 35 34 37 38 31 35 37 37 34 34 38 34 34 38 42 42 38 31 29 27 25 26 30 35 40 42 44 47 53 56 59 67
59 68 55 52 52 38 35 34 32 32 35 35 37 37 38 28 28 28 35 40 40 38 38 40 43 39 33 31 32 29 24 24 28 35 36 35 37 41 46 52 59 59 64 72
46 60 70 53 52 76 37 38 34 37 36 36 30 24 36 33 36 38 29 39 42 43 45 40 34 32 34 33 28 25 26 32 34 35 36 39 44 52 52 47 47 51 56 58
58 64 75 68 61 47 41 37 37 41 28 36 33 33 35 29 36 40 36 42 46 46 40 33 35 37 33 29 28 31 34 37 40 41 44 52 58 52 44 43 44 43 43 36
62 61 65 72 72 65 41 40 41 29 38 37 36 26 37 33 32 36 38 46 47 40 34 39 40 35 32 34 38 40 43 47 49 50 55 58 50 44 42 42 38 29 22 18
69 64 60 50 48 39 37 34 38 38 38 40 40 24 38 34 32 33 39 45 39 37 43 43 38 36 40 45 48 51 54 56 57 58 58 52 46 43 39 31 25 19 15 15
41 31 47 58 49 44 41 40 39 38 37 45 42 24 29 36 35 37 42 38 40 48 46 41 41 46 54 61 59 60 63 64 65 62 56 48 43 38 31 26 18 17 19 23
33 26 41 49 56 54 43 42 42 38 41 44 40 28 29 37 38 42 42 42 48 50 46 48 52 58 65 73 71 69 70 75 72 63 53 46 37 32 23 18 21 25 31 35
40 43 53 50 38 54 52 50 46 49 47 45 40 30 30 40 42 44 45 47 54 50 52 58 63 69 77 81 79 80 85 80 69 56 47 37 32 22 22 26 31 36 36 30

GFSCGP_700_rhum_051.txt.gz
RH
42 40 35 31 28 25 23 21 18 23 34 35 41 34 44 62 66 72 78 77 83 67 52 51 50 42 41 43 38 38 41 46 51 36 30 27 26 24 23 38 46 61 72 58
42 39 34 37 37 33 28 26 22 29 32 29 37 30 37 45 58 60 67 71 77 86 58 42 43 46 46 48 50 52 52 61 65 53 42 41 40 40 54 65 65 61 67 65
38 34 38 40 36 30 28 28 29 30 36 27 26 24 22 27 44 54 54 59 64 75 61 37 37 40 47 47 50 55 58 62 70 68 64 63 63 69 72 77 76 74 76 75
38 34 40 39 36 30 27 29 34 30 27 24 31 23 34 27 35 49 52 51 55 63 78 34 33 37 40 46 53 56 59 63 65 66 75 68 71 73 76 80 82 86 86 86
34 35 40 38 37 33 30 38 32 29 30 27 40 27 31 28 29 34 48 53 53 56 64 41 28 29 32 37 39 45 54 58 63 65 70 71 74 76 78 78 79 79 84 91
32 35 38 37 37 37 34 40 36 35 30 33 27 29 26 31 22 24 31 42 55 57 60 52 61 33 32 36 41 44 47 48 51 53 59 66 72 78 78 82 77 89 90 89
34 36 39 41 41 45 38 35 37 38 33 37 31 24 21 30 25 26 29 30 39 53 61 64 67 68 36 39 46 55 56 56 56 59 64 69 79 84 80 88 86 90 89 84
34 30 36 38 36 41 37 33 39 53 46 34 36 26 23 28 30 30 31 35 36 42 55 61 65 70 53 50 52 57 62 65 68 75 96 80 86 88 79 76 83 84 91 86
28 28 28 32 37 35 38 35 32 36 45 41 32 26 28 28 24 29 30 37 41 45 37 51 65 72 81 58 49 57 64 71 81 85 91 81 100 92 88 86 83 90 82 86
28 27 28 35 36 37 36 44 37 39 47 49 25 24 23 26 26 25 26 31 45 35 30 43 58 66 76 91 58 50 60 68 74 80 86 89 94 97 90 89 88 87 70 64
29 30 31 41 42 37 42 43 39 38 36 50 36 26 27 25 26 27 29 31 33 36 19 34 34 37 69 86 96 47 46 64 76 81 83 85 88 87 82 62 54 56 56 69
31 32 35 42 36 35 35 37 38 38 39 36 34 35 30 29 28 30 32 34 34 37 25 17 26 37 35 40 45 40 39 47 69 74 74 76 65 48 40 52 61 72 82 84
34 32 34 33 39 42 42 42 37 40 38 40 54 38 34 29 31 30 30 31 37 36 31 25 22 10 25 41 40 39 53 64 68 67 68 57 34 54 62 64 62 63 65 72
39 34 36 33 31 34 36 34 32 35 40 40 33 29 34 32 32 31 30 34 36 46 47 40 27 23 12 19 22 24 24 25 28 31 41 46 55 55 51 48 48 56 66 76
42 37 34 31 29 27 27 29 30 31 33 35 34 29 31 30 30 30 31 34 34 39 44 54 34 30 23 25 26 28 27 29 35 56 59 52 49 48 50 57 73 86 87 83
47 43 37 31 30 28 26 25 24 24 26 28 28 27 27 28 28 32 39 40 34 24 30 38 44 45 33 31 32 29 36 61 67 58 54 52 60 68 40 33 34 37 45 48
50 49 38 37 33 31 31 29 27 25 25 26 28 27 28 28 29 31 34 38 45 33 28 32 31 31 33 37 37 45 48 49 52 55 61 48 28 27 27 30 34 38 42 44
71 54 45 46 43 60 37 33 31 30 29 28 29 29 30 28 28 32 38 44 47 35 35 29 34 33 33 41 43 49 55 54 45 33 28 25 23 24 28 30 30 31 35 41
75 72 59 57 52 38 32 36 35 31 30 27 28 31 29 30 34 34 31 28 25 37 37 36 34 36 37 45 51 45 34 31 30 26 23 23 25 28 29 30 34 40 46 46
70 79 77 68 56 58 37 37 35 31 33 30 29 30 34 32 33 32 40 36 29 28 40 40 41 42 44 42 34 32 32 30 25 23 25 29 31 32 35 40 47 45 39 35
87 86 89 78 61 45 37 35 34 42 31 32 33 32 37 35 39 46 41 35 36 34 41 43 45 44 35 33 34 34 30 27 26 29 34 37 38 39 42 48 44 39 35 33
89 83 88 83 68 67 41 41 40 31 36 44 39 38 37 33 19 31 30 32 34 36 44 48 46 36 34 36 37 33 30 31 35 40 44 46 47 48 51 46 40 37 32 28
67 81 72 63 57 52 43 37 36 37 41 45 39 42 39 43 26 32 30 31 35 43 50 48 41 36 39 40 35 34 38 43 46 52 56 59 57 54 50 44 38 33 29 20
54 52 64 76 68 61 57 46 45 42 40 41 44 42 43 46 29 31 32 31 34 41 48 46 37 41 44 39 40 47 52 57 60 63 65 67 62 56 47 41 35 32 22 21
39 46 62 52 40 54 57 55 48 52 47 44 42 47 51 43 29 31 34 34 36 44 46 39 42 47 44 46 54 63 70 76 75 73 77 72 62 51 43 37 32 23 24 30
47 49 52 47 33 44 39 50 54 59 53 52 49 47 45 45 32 31 36 36 40 42 39 43 49 50 50 57 65 72 80 85 87 90 82 71 56 45 39 35 26 28 35 36

GFSCGP_700_rhum_054.txt.gz
RH
40 38 33 33 31 34 26 22 20 27 27 35 34 37 57 45 59 63 72 76 84 63 44 41 32 34 36 35 36 51 49 50 55 57 42 39 42 44 42 42 45 49 58 65
39 38 35 33 33 34 30 26 23 22 30 30 23 28 37 58 72 63 58 74 79 96 48 41 43 42 43 43 42 43 49 50 58 42 33 29 25 24 27 26 59 41 56 69
38 35 38 33 36 31 26 23 22 31 34 32 24 23 22 33 56 53 52 66 74 80 46 36 36 41 40 37 47 50 51 58 60 52 41 40 37 38 42 46 55 60 62 66
36 35 36 37 36 31 26 22 25 32 32 26 31 26 22 26 33 47 50 56 62 73 75 33 34 32 34 35 41 47 48 51 55 65 60 57 55 57 61 64 70 71 73 79
34 34 34 35 33 32 29 34 32 26 25 24 28 34 28 29 30 36 46 48 52 59 66 27 27 30 32 36 36 42 48 53 57 62 66 92 68 70 71 72 77 73 76 80
33 32 32 32 34 34 31 34 36 32 29 33 25 30 37 32 30 31 37 45 47 51 58 62 31 28 29 33 36 40 44 48 57 57 65 69 72 74 74 73 73 72 72 81
33 30 30 33 34 34 34 33 36 40 39 42 30 29 28 35 33 31 33 35 46 51 54 59 66 39 30 31 37 40 41 44 48 54 57 63 73 75 75 78 80 80 80 87
33 31 29 35 36 36 39 35 36 55 64 44 45 35 28 32 30 30 27 29 34 44 49 52 62 70 59 32 37 42 50 51 52 55 56 59 56 70 83 95 88 80 90 88
31 31 28 35 36 34 40 36 32 31 44 51 52 39 35 30 28 25 28 30 32 32 47 52 52 64 67 68 44 44 48 54 57 69 74 72 85 72 64 78 94 92 94 89
30 31 30 28 33 34 33 41 36 32 54 58 32 30 32 30 25 25 26 30 36 43 46 45 51 58 64 68 71 64 56 57 60 66 69 79 86 86 92 74 91 98 93 85
31 32 31 28 30 31 32 34 44 39 33 49 50 36 33 32 26 25 26 29 31 40 50 33 40 50 59 67 75 86 74 70 71 67 76 78 74 78 88 89 91 78 80 71
31 31 32 32 31 34 32 34 40 43 40 40 50 47 32 36 27 28 30 30 32 36 45 21 20 41 62 72 77 81 90 93 68 80 85 89 84 87 85 72 62 58 61 68
32 33 38 33 33 36 34 34 36 37 36 44 69 50 31 30 29 30 30 31 32 36 43 36 21 20 18 48 79 97 93 91 67 82 87 90 74 76 69 48 54 58 51 46
38 39 36 40 49 37 35 33 44 41 41 46 48 47 38 31 33 29 29 31 30 34 41 51 46 26 23 17 24 49 49 57 50 54 48 51 47 40 47 53 50 45 45 52
40 43 40 34 33 34 35 34 35 37 33 49 46 37 31 29 35 42 34 35 34 34 42 48 56 53 30 26 21 16 17 16 26 36 43 42 50 46 45 45 50 57 65 64
42 47 43 42 34 34 31 33 30 29 28 26 29 32 29 28 35 36 29 37 37 36 35 39 55 69 60 32 26 23 26 30 38 41 43 61 59 48 53 56 69 50 31 30
52 48 44 46 40 35 32 28 27 25 27 24 25 26 27 26 26 26 28 28 35 38 40 43 51 74 97 52 36 39 35 35 39 44 61 56 55 58 64 44 28 24 27 31
50 49 46 51 43 56 36 31 30 28 27 25 23 24 25 26 26 28 28 31 34 38 42 34 35 49 60 48 44 39 41 51 47 47 51 57 57 38 28 24 24 27 27 27
60 74 74 56 54 47 38 38 35 32 30 29 28 26 26 26 29 30 31 30 31 35 34 30 27 38 35 32 35 39 45 47 50 57 51 33 29 25 23 26 28 28 30 34
78 80 84 62 62 67 52 38 34 33 34 30 28 27 26 29 32 32 31 30 31 35 35 31 27 36 38 37 37 39 50 56 43 32 31 29 25 25 29 31 34 36 37 45
74 91 98 91 74 51 42 39 35 38 37 31 31 30 30 33 33 34 33 16 25 38 38 32 28 40 43 44 45 50 43 34 33 33 30 27 28 32 35 39 41 43 47 46
35 53 93 91 90 79 44 38 38 36 32 35 35 39 35 36 34 34 38 21 29 30 29 32 34 41 47 49 46 37 34 35 36 32 30 30 33 38 43 48 51 50 49 44
56 54 69 79 65 63 55 43 43 38 39 37 46 45 43 44 39 38 43 29 30 33 30 35 37 46 51 47 37 35 36 38 37 33 34 38 44 49 56 60 58 54 48 41
54 70 72 50 52 71 67 72 53 44 49 48 51 55 50 48 45 47 44 31 26 32 33 37 42 50 52 43 37 37 40 41 39 41 47 54 60 65 69 68 63 54 44 38
22 44 67 62 61 42 35 72 74 64 53 53 48 47 49 53 48 46 44 28 27 36 36 38 46 54 52 46 39 40 44 44 49 56 63 70 79 81 80 72 59 46 39 33
30 31 38 52 45 56 59 64 44 58 66 55 56 55 56 55 49 48 46 36 28 38 38 40 48 53 53 48 40 44 47 51 58 64 70 88 96 96 86 61 47 36 32 30

GFSCGP_700_rhum_057.txt.gz
RH
32 22 16 11 20 32 34 35 28 22 30 34 33 41 46 44 51 69 79 67 57 35 37 31 30 32 34 39 40 35 34 44 52 49 59 68 63 70 68 69 69 64 59 56
41 31 13 16 33 34 36 34 29 24 36 33 31 38 32 36 38 59 78 63 52 25 31 39 37 36 37 37 42 46 40 46 40 42 47 44 42 48 47 45 46 53 54 53
44 17 18 34 35 35 36 32 27 24 30 30 31 30 40 42 45 53 62 66 63 22 29 31 34 34 36 35 35 38 51 53 39 30 26 27 31 38 40 40 42 43 44 47
46 36 34 38 38 36 35 30 25 22 31 34 31 34 29 44 57 39 52 63 60 43 24 32 33 31 30 38 39 39 43 42 48 45 43 40 35 34 34 37 41 52 54 61
36 40 37 36 37 37 34 32 31 29 28 27 26 33 32 34 57 49 55 60 60 37 24 25 28 27 29 33 34 37 42 45 49 47 49 54 53 54 54 59 64 68 69 68
40 33 36 36 35 35 33 34 32 32 35 40 30 31 31 29 32 48 47 46 48 45 40 30 40 32 29 30 33 35 37 44 48 50 52 56 56 61 62 66 68 66 67 73
41 39 36 34 34 33 33 33 42 50 50 57 32 38 33 31 32 32 35 44 44 48 48 48 47 37 29 28 28 33 35 38 41 44 48 50 54 63 66 69 75 77 78 77
45 43 38 32 32 32 33 34 40 56 70 58 37 42 36 33 31 31 34 33 36 48 47 46 42 40 36 36 31 31 35 40 43 46 48 50 55 60 73 69 76 76 76 78
39 42 37 33 30 33 37 36 34 37 46 56 47 38 39 33 30 31 31 32 36 46 47 46 46 48 49 50 47 36 33 36 44 49 56 59 72 69 82 66 68 66 72 81
38 38 34 33 29 34 35 38 42 40 59 64 46 42 40 33 31 31 26 28 30 32 42 47 49 52 53 55 56 60 61 51 46 50 52 61 67 73 82 89 84 80 88 95
36 35 33 32 32 33 36 35 34 42 47 65 62 43 36 39 34 35 25 27 34 40 43 46 51 58 56 57 59 58 59 66 65 67 64 65 66 81 98 93 91 74 87 95
39 36 39 33 34 34 35 34 32 43 53 47 40 45 39 36 35 34 28 29 30 31 34 30 35 49 58 55 58 57 63 66 71 70 62 86 99 94 100 96 95 72 69 55
38 36 39 40 35 37 35 33 33 33 36 47 62 53 40 39 37 32 32 29 30 31 34 35 24 19 47 52 62 69 72 79 75 84 91 74 86 77 78 98 87 57 48 56
36 36 34 45 43 39 37 32 32 34 37 39 45 42 39 42 37 33 30 30 29 31 32 32 29 25 21 33 58 72 83 94 74 68 73 57 68 70 69 58 62 54 55 52
36 38 34 35 39 39 43 40 36 35 37 45 44 50 45 39 35 33 33 30 33 31 32 35 38 31 22 21 23 39 51 46 46 59 56 47 47 51 50 50 49 50 54 58
51 42 38 36 37 40 45 40 46 35 40 44 44 41 35 32 33 33 33 33 33 34 38 37 41 38 49 38 21 30 25 32 43 45 38 39 38 38 45 50 53 58 61 70
78 52 46 47 45 43 46 40 41 45 37 32 35 31 27 28 31 31 31 30 33 38 37 36 37 40 52 58 46 22 34 32 31 35 37 38 40 48 61 56 62 64 49 28
96 72 49 50 48 62 47 40 36 35 34 32 30 29 27 24 26 30 27 30 32 38 36 35 34 36 37 40 60 48 43 38 37 38 38 47 57 62 59 64 48 30 24 23
99 98 58 59 54 46 45 41 34 34 33 31 29 28 27 26 26 26 28 28 29 31 33 34 36 39 39 44 40 37 39 40 41 45 52 59 57 61 58 34 29 24 23 25
86 99 55 73 68 65 52 43 36 38 36 34 31 28 29 28 26 28 28 31 30 30 28 22 30 41 42 33 38 48 47 40 42 46 52 60 59 39 31 28 25 25 29 33
82 98 85 97 95 67 55 46 38 42 41 32 30 33 30 30 31 31 31 32 28 21 14 12 32 39 36 25 26 41 45 46 43 48 52 44 33 32 30 27 29 34 37 42
50 54 57 93 98 91 53 46 42 43 39 35 44 35 32 37 34 34 33 28 24 25 26 19 30 33 34 31 30 44 46 46 46 46 35 34 35 33 31 33 37 40 44 52
48 42 43 43 51 66 63 55 57 60 51 52 47 49 41 46 42 40 35 40 40 36 34 21 30 32 35 35 41 48 49 48 44 35 36 37 38 36 38 42 43 48 58 66
48 46 52 48 49 66 64 66 70 63 62 50 62 59 39 44 52 57 48 45 43 41 38 23 30 32 37 42 49 52 51 46 37 37 39 40 41 42 44 50 61 72 78 72
44 47 46 44 32 66 85 68 57 62 73 53 57 68 65 60 60 62 52 50 50 46 41 23 29 36 40 47 53 55 53 45 38 39 42 44 46 48 55 68 80 87 86 75
42 33 38 21 23 30 84 56 67 75 62 71 68 64 51 67 58 55 55 55 58 55 47 32 32 40 45 53 57 59 57 49 44 43 46 50 55 64 80 94 100 99 96 90

GFSCGP_700_rhum_063.txt.gz
RH
28 23 22 15 16 16 20 24 24 35 35 37 33 36 35 35 39 36 33 28 27 22 22 25 30 31 30 34 22 42 78 80 97 98 100 100 100 100 100 99 96 95 98 86
34 25 24 20 21 22 27 21 19 34 36 36 35 36 34 33 28 35 36 36 30 18 23 24 31 33 27 34 31 20 30 56 80 92 98 99 100 100 100 100 99 100 96 88
30 26 26 24 21 22 20 18 29 36 35 33 32 32 34 33 32 36 36 37 40 36 23 26 30 33 29 34 32 31 28 21 27 47 79 86 98 99 100 100 100 100 99 87
40 28 28 32 25 20 21 22 35 37 40 35 33 42 33 33 30 33 36 36 34 33 22 22 29 29 26 33 32 32 33 33 26 21 26 31 49 63 92 99 100 90 95 89
40 31 32 37 26 31 22 34 38 40 42 38 37 37 31 28 28 30 32 32 33 32 32 20 23 27 30 29 32 30 32 33 34 34 29 29 31 34 51 60 72 65 68 70
40 35 40 32 31 32 33 38 38 41 41 48 37 36 35 32 29 26 26 32 37 36 24 26 28 30 29 28 30 30 27 28 32 35 38 38 34 33 35 39 45 56 61 62
41 36 43 43 37 36 41 42 49 52 51 53 36 39 36 32 28 27 24 32 32 34 37 28 23 25 27 26 28 29 29 28 29 31 35 41 44 46 44 40 39 39 40 43
44 38 32 34 39 35 37 38 47 59 63 52 35 45 34 35 36 33 33 32 32 32 36 38 28 29 36 35 30 29 30 30 31 33 34 38 46 49 51 55 57 58 60 61
41 40 30 30 28 40 36 43 39 40 45 60 44 43 40 40 40 33 31 34 33 34 38 39 36 43 46 49 49 48 43 33 32 33 38 40 42 48 57 65 68 69 72 73
42 48 40 37 39 38 41 39 40 44 58 66 50 49 36 32 28 36 33 33 34 33 35 36 35 39 43 46 48 51 54 52 53 41 35 39 44 48 58 66 72 83 86 88
42 47 42 34 41 38 42 42 41 40 38 52 56 47 36 35 26 36 32 30 32 32 30 31 36 37 41 47 49 50 52 55 54 52 56 45 43 52 60 66 68 78 99 98
65 60 51 45 34 32 38 38 38 43 52 44 45 45 40 35 39 34 35 33 33 29 29 28 31 32 38 42 48 50 53 56 58 55 56 78 64 73 92 94 92 85 99 91
78 78 70 56 49 46 47 38 42 42 40 42 56 47 40 39 33 36 36 35 34 32 29 31 30 34 30 32 29 30 49 53 59 57 56 59 90 99 91 77 94 82 86 87
73 91 100 90 63 48 43 38 36 39 40 43 42 42 36 37 39 38 35 37 35 32 33 31 31 31 30 30 32 28 22 24 47 54 53 55 75 63 79 82 77 86 93 78
68 84 91 97 83 66 53 47 38 37 38 42 42 39 34 33 34 36 38 40 36 32 33 34 32 34 32 32 33 35 25 23 22 30 41 48 64 72 68 61 67 76 87 83
82 70 73 72 85 72 69 49 44 41 42 41 44 41 37 36 33 34 37 39 40 37 36 35 34 32 32 32 34 34 31 25 29 33 33 39 47 56 62 57 57 62 66 61
80 78 67 67 64 94 65 57 55 44 43 42 48 46 40 38 35 37 37 40 41 41 40 37 34 34 34 33 34 35 34 33 32 30 31 36 39 50 58 60 54 52 53 58
94 89 85 64 67 89 70 62 61 52 44 39 40 47 46 44 41 38 37 41 37 35 37 36 32 30 32 34 35 34 35 35 37 37 39 53 53 49 55 56 53 53 55 57
74 80 84 65 70 54 34 51 59 58 48 45 40 43 43 41 40 33 32 33 29 27 27 33 32 31 30 32 34 36 38 38 41 48 56 52 64 58 57 56 54 55 56 66
68 100 100 100 89 84 30 31 29 56 75 50 48 42 39 48 43 39 33 31 28 26 26 31 34 30 32 36 38 39 40 44 52 75 64 48 58 56 52 55 60 66 68 74
98 100 99 100 86 67 42 29 33 82 72 54 46 46 46 41 43 43 40 36 34 32 28 28 28 32 37 40 37 26 27 36 46 51 50 49 52 62 67 74 76 74 79 86
78 84 87 99 93 80 54 71 67 98 93 68 54 48 49 45 43 42 40 36 33 32 30 32 33 32 28 25 23 20 18 25 38 50 46 42 40 59 84 94 94 91 73 43
65 60 59 60 50 46 55 51 57 69 95 90 86 61 50 47 43 39 36 34 36 36 34 35 35 34 32 31 29 26 24 34 43 47 47 44 48 61 79 94 80 56 41 39
65 64 68 66 57 41 47 46 50 60 68 84 88 82 66 53 43 43 40 38 36 41 46 45 45 42 42 40 37 24 28 41 44 48 51 52 60 75 78 66 52 45 44 46
58 53 49 51 46 39 35 46 44 59 54 72 84 74 84 69 56 52 48 47 50 52 59 59 54 53 50 48 45 32 27 34 39 42 51 60 68 71 66 60 55 53 56 61
72 70 60 56 63 62 59 49 56 64 38 65 62 68 44 77 75 74 63 62 62 62 72 73 63 60 59 57 57 54 42 38 41 49 56 65 72 75 73 70 70 72 76 86

GFSCGP_700_rhum_066.txt.gz
RH
22 32 25 23 18 18 22 21 22 13 30 35 36 35 31 35 35 33 33 36 35 30 20 25 29 31 25 31 25 32 83 98 98 98 99 99 98 100 99 99 100 99 99 99
18 28 26 27 24 25 24 24 22 16 35 36 36 34 33 36 32 32 29 31 40 36 22 22 27 32 26 32 31 22 37 64 91 100 100 99 99 100 100 100 99 99 99 96
12 22 26 31 28 27 27 26 21 16 30 36 37 35 30 33 32 32 32 28 32 36 31 20 24 27 27 32 31 30 27 26 54 82 98 100 100 100 100 98 100 98 99 98
26 16 32 31 30 27 27 22 20 16 26 38 40 46 37 28 30 33 32 27 30 37 42 17 21 23 28 31 32 31 32 30 23 31 49 74 85 98 99 98 100 99 98 98
36 25 26 35 27 36 29 25 19 22 35 42 42 45 38 34 27 28 29 27 27 32 43 26 20 23 27 27 32 32 31 30 30 27 29 45 62 78 99 99 100 100 100 99
41 33 40 33 30 39 31 35 38 43 46 60 43 42 37 34 31 30 28 24 27 30 38 35 20 21 23 22 25 26 28 32 33 33 32 30 33 36 60 82 82 80 87 93
49 40 43 47 44 45 42 44 52 56 62 65 40 40 37 34 28 27 28 29 25 30 34 38 18 18 22 22 24 26 26 28 30 33 35 38 37 32 31 33 39 45 50 53
41 43 37 48 46 46 45 47 51 62 66 53 42 46 34 32 26 34 37 33 23 30 30 38 29 19 22 24 26 26 27 29 30 31 34 38 42 44 43 38 36 38 42 49
43 44 32 32 30 34 44 48 43 42 51 61 42 39 36 34 31 34 36 34 31 28 31 32 39 33 27 26 29 36 39 34 30 31 34 36 40 45 49 50 48 50 46 42
40 46 41 39 42 42 41 39 43 48 59 67 53 50 37 33 30 25 30 36 34 32 31 33 37 41 39 43 44 46 51 55 53 40 34 35 39 44 50 56 57 64 59 54
32 43 41 40 45 45 46 46 43 45 45 61 60 44 36 34 33 28 33 35 33 32 28 30 31 33 38 41 44 46 48 50 54 53 57 48 43 42 48 55 59 65 77 90
78 70 56 44 33 40 44 44 44 46 48 52 48 45 38 36 35 34 34 34 33 31 32 30 28 32 36 34 38 41 46 49 52 57 58 59 63 70 66 58 62 70 78 94
83 95 86 60 54 52 49 45 43 42 46 49 60 49 42 40 39 35 34 36 34 33 32 31 33 29 29 30 34 35 32 30 40 53 60 57 57 58 64 71 69 89 77 80
60 77 95 94 97 98 86 67 56 48 45 46 45 46 43 42 40 37 33 37 37 35 34 34 32 32 31 31 31 31 32 27 22 24 31 44 53 54 61 73 78 80 77 95
65 59 60 62 79 69 86 78 64 61 56 45 41 42 41 38 39 37 34 33 38 40 39 33 33 31 32 32 33 32 34 35 28 26 28 26 29 48 56 67 74 82 94 84
70 76 69 72 56 48 47 56 65 61 56 56 50 48 42 39 39 39 37 34 33 37 39 40 35 33 34 34 32 32 33 33 31 32 30 28 28 36 43 52 57 65 74 76
81 95 84 72 57 52 40 48 64 65 64 62 59 47 43 43 43 41 40 36 35 37 39 40 39 35 34 35 34 34 34 35 33 35 36 36 36 36 44 51 58 59 63 69
58 99 96 82 61 84 31 28 31 48 64 57 57 56 53 44 41 41 45 42 39 37 33 43 41 39 41 34 32 33 36 36 33 36 37 40 43 44 50 57 57 59 63 67
55 98 95 82 74 48 28 28 28 28 17 30 38 53 51 46 44 42 44 43 36 33 35 31 29 31 36 35 30 31 34 34 35 41 40 46 58 58 47 59 58 58 59 62
76 98 93 94 96 88 31 35 30 28 27 25 44 59 57 50 50 42 42 44 41 34 30 30 27 27 31 34 32 31 32 35 38 42 46 58 72 71 49 64 61 57 64 66
86 89 93 96 93 77 54 39 45 85 49 46 34 54 62 59 57 52 43 44 44 36 33 31 29 27 30 35 33 33 36 38 40 45 48 58 72 62 50 50 65 65 58 63
73 85 92 100 97 90 51 53 57 56 58 89 75 57 75 78 64 51 46 43 42 42 40 34 34 31 29 29 36 39 38 39 34 29 45 66 74 72 66 54 71 89 85 89
80 72 64 67 56 41 43 42 45 51 54 53 60 71 80 86 79 72 50 45 40 39 36 38 39 35 34 34 35 32 28 24 23 31 47 62 67 60 43 63 84 99 100 100
72 73 74 69 58 59 61 48 44 38 55 67 76 60 62 90 88 87 65 49 43 39 41 36 38 41 40 38 36 36 37 37 44 35 36 42 44 44 55 63 82 99 100 100
64 65 62 63 59 58 50 46 48 41 47 57 82 82 70 92 80 87 85 69 48 41 42 46 51 54 54 51 52 56 57 55 43 38 42 46 47 53 59 73 98 100 100 96
62 89 76 65 58 61 57 59 59 54 58 57 73 70 88 83 78 81 50 77 81 59 58 61 62 71 72 70 75 75 70 69 71 58 58 57 54 62 77 91 93 91 88 86

GFSCGP_700_rhum_069.txt.gz
RH
18 41 34 26 26 25 22 22 20 18 19 20 29 36 31 27 28 34 33 34 44 44 29 25 29 30 26 31 30 22 63 98 100 100 98 100 98 99 98 100 100 97 94 98
29 31 26 31 30 27 23 23 21 16 17 20 28 36 36 30 29 31 32 33 35 41 39 22 24 30 25 30 29 28 33 81 86 86 98 98 100 100 100 100 100 98 99 99
21 22 19 27 32 30 28 25 22 19 21 22 26 36 36 29 27 32 30 29 33 35 40 33 20 24 26 29 30 29 28 40 64 75 91 95 100 100 100 99 100 100 100 99
39 21 25 26 27 29 30 27 27 24 31 29 36 39 39 31 24 26 28 30 30 32 37 43 27 22 24 24 28 29 30 27 24 35 54 96 98 98 98 100 100 100 99 99
40 28 20 32 31 36 31 35 31 28 30 35 36 43 38 34 28 23 21 28 29 29 34 40 36 22 23 20 24 25 28 30 27 25 31 58 90 100 99 100 100 100 98 99
38 37 35 26 21 28 37 38 36 35 45 51 47 45 40 35 28 25 22 25 26 26 28 36 39 20 20 17 20 23 25 29 31 31 28 26 34 63 96 96 98 99 98 99
41 26 40 40 45 42 41 47 46 56 60 49 39 45 38 35 28 29 31 28 30 29 28 33 36 18 18 18 19 22 26 27 30 32 35 34 30 27 40 71 94 96 99 99
45 44 35 46 46 41 40 46 47 46 55 45 46 48 38 31 26 28 30 37 36 26 28 30 35 30 17 20 24 24 26 28 29 32 36 38 39 37 31 28 35 44 66 84
33 38 22 29 32 43 48 57 45 48 54 56 46 41 38 35 32 33 36 34 35 29 24 29 31 34 32 22 24 26 28 28 29 31 34 36 40 42 44 40 36 35 40 47
44 44 39 37 38 46 49 44 51 54 51 50 46 50 39 33 33 30 30 29 34 29 32 30 31 32 36 32 35 33 38 47 50 42 35 35 38 41 46 49 49 49 44 41
50 48 49 49 46 44 54 52 46 44 44 45 46 41 36 34 34 36 32 32 36 34 33 30 31 34 36 39 41 39 40 44 47 50 53 50 43 40 40 44 50 54 55 59
62 48 42 42 44 48 49 52 52 53 49 53 52 46 39 37 36 33 32 30 30 35 32 29 30 34 37 40 41 43 45 46 48 52 53 56 58 58 60 54 51 50 52 62
85 83 75 60 57 46 44 53 55 52 50 51 62 50 44 42 41 40 38 33 35 38 34 33 30 29 29 34 36 31 32 37 45 48 47 53 56 64 60 59 61 64 67 75
70 75 93 88 96 89 77 72 68 73 77 58 53 49 44 41 42 41 39 35 31 33 36 33 32 32 34 30 30 33 32 30 28 29 25 29 37 48 57 62 68 74 78 73
49 69 57 55 60 55 58 52 58 60 64 75 68 59 52 46 43 41 39 37 34 32 34 40 36 36 35 33 32 32 33 33 34 20 24 23 24 26 39 54 56 68 84 79
92 73 68 63 42 37 39 40 41 47 62 61 61 63 62 50 47 46 44 39 38 36 34 41 41 40 38 34 33 33 34 33 34 24 24 30 30 19 23 30 36 42 58 68
88 89 83 88 64 60 59 36 31 36 40 29 53 49 50 50 45 44 44 45 41 37 35 34 34 36 40 39 34 34 34 35 35 35 33 34 35 37 32 32 32 39 55 62
60 80 92 87 81 76 39 27 26 34 28 22 36 32 31 31 38 42 42 42 42 43 42 38 36 36 39 41 36 36 35 34 37 37 36 36 38 41 43 44 40 43 48 58
59 68 81 96 92 60 43 27 26 34 26 22 21 21 41 46 54 53 50 44 42 40 44 43 37 35 38 42 40 39 39 32 34 38 36 34 43 46 48 53 57 46 57 59
71 78 69 98 90 81 48 40 37 34 32 42 61 70 69 59 66 61 48 45 42 42 44 45 39 34 32 30 30 34 37 32 31 32 34 38 47 54 61 58 66 62 50 58
90 92 86 97 95 68 57 54 52 63 56 52 50 70 72 73 88 84 52 43 45 42 43 46 43 35 31 29 28 30 35 32 32 31 33 42 54 58 63 57 66 58 53 67
76 94 97 100 99 83 57 60 63 56 46 47 50 62 69 69 86 92 73 50 49 49 44 43 45 40 36 34 30 29 36 37 33 36 39 47 62 65 56 56 78 72 54 48
78 68 64 72 62 58 58 66 50 36 47 46 45 51 80 77 75 88 85 67 53 53 50 44 44 47 47 42 38 36 33 37 35 38 44 57 55 46 53 62 70 61 62 57
63 60 66 62 64 48 45 57 62 61 64 46 40 45 61 73 82 73 87 77 70 64 58 48 42 44 45 46 40 41 40 38 38 33 34 39 49 53 57 67 65 48 53 99
56 62 62 62 56 55 53 65 58 49 48 63 61 56 62 62 76 92 97 89 86 84 87 69 55 46 43 42 42 40 36 35 37 43 49 55 52 48 46 46 53 69 89 99
64 60 57 57 65 70 65 63 62 69 60 53 58 60 68 73 77 89 87 92 81 76 72 80 75 66 73 71 62 62 66 64 67 66 61 59 61 55 50 57 64 71 89 100

GFSCGP_700_rhum_075.txt.gz
RH
27 34 31 30 31 33 32 27 24 23 22 22 24 23 21 24 24 33 36 43 56 61 35 35 33 15 20 22 20 20 21 44 80 96 98 98 100 98 98 98 100 94 87 77
34 43 37 37 37 39 36 32 28 26 23 27 24 22 20 20 21 25 29 34 46 61 44 33 36 29 17 20 18 20 22 36 78 79 92 97 99 100 100 100 99 86 81 67
70 42 47 42 43 40 39 38 33 29 26 26 28 25 22 21 21 23 26 30 32 48 65 31 34 38 20 18 16 18 20 21 66 89 87 99 98 100 99 100 99 97 97 95
92 58 48 52 47 41 42 37 34 32 30 28 25 22 21 19 18 24 28 32 34 40 56 34 31 36 34 19 16 15 21 21 27 55 68 87 88 94 97 99 100 100 100 100
74 80 56 40 43 42 42 38 34 32 34 32 29 26 24 22 19 21 26 25 28 41 51 35 30 36 41 19 17 13 22 22 21 23 30 62 88 95 100 100 100 100 100 100
61 77 71 46 39 47 43 37 36 33 34 33 31 30 26 21 23 26 25 24 25 33 50 51 29 36 38 22 18 13 19 24 26 25 24 28 47 75 87 88 100 100 100 100
63 68 57 52 44 36 40 38 37 39 37 37 29 30 29 24 27 28 28 28 26 31 47 61 28 28 34 23 17 14 14 20 23 27 30 28 26 34 61 91 90 98 98 98
34 49 60 51 51 45 42 39 35 46 45 33 30 27 26 27 28 29 30 30 28 38 48 50 33 25 32 30 16 15 14 20 22 25 29 32 35 28 26 36 68 90 88 96
36 47 49 58 56 61 54 40 34 33 46 44 37 31 31 32 33 31 32 35 32 34 37 50 41 24 31 33 15 17 16 18 22 25 28 30 32 36 36 27 29 37 69 70
45 38 36 54 63 54 52 52 40 39 52 52 35 29 37 32 33 32 30 32 33 32 38 45 37 26 30 34 32 18 20 20 22 24 25 28 32 35 36 40 40 40 35 34
46 52 54 46 68 52 47 44 52 44 40 45 48 36 32 33 33 35 35 37 37 40 44 43 38 33 30 34 34 26 23 25 26 27 28 28 29 30 32 36 39 42 43 43
49 69 52 49 44 54 51 40 50 47 47 44 40 40 37 38 45 46 46 45 40 43 40 44 40 36 34 35 34 34 22 24 26 30 35 39 44 45 41 42 36 35 38 45
81 57 52 61 57 49 48 48 48 50 51 61 90 46 38 46 41 42 42 44 44 44 40 40 45 36 34 34 34 34 35 25 27 33 39 43 46 50 53 53 49 47 47 44
75 85 55 40 56 58 44 50 60 51 50 45 45 44 44 49 43 42 42 45 40 44 45 42 42 47 36 35 36 35 37 37 37 38 39 42 46 50 53 58 61 54 54 54
83 94 87 74 79 64 61 57 52 51 50 50 55 52 45 44 46 44 45 48 44 32 34 43 46 45 48 41 35 35 38 40 41 42 43 38 42 45 44 46 50 61 65 58
72 57 63 80 61 59 58 59 56 50 47 46 43 42 42 42 47 43 42 50 55 52 51 50 47 49 49 51 46 40 38 36 35 41 35 32 33 30 24 26 26 35 54 65
82 66 50 57 47 58 59 53 50 51 51 48 46 52 48 50 45 54 58 64 47 42 42 39 40 40 45 57 42 39 39 40 38 36 34 32 32 33 30 22 22 23 24 35
83 73 64 60 65 59 40 42 42 43 44 44 41 46 53 58 58 58 56 82 46 37 43 42 44 42 42 40 40 40 39 37 38 37 33 33 33 33 31 24 21 25 30 31
85 75 72 70 51 42 37 35 35 36 34 45 48 54 62 64 67 54 69 87 63 63 67 53 42 43 42 41 41 40 40 38 39 36 37 36 34 35 34 28 30 29 31 35
84 82 73 67 59 48 36 55 65 50 39 62 63 64 66 66 59 55 76 80 55 80 72 64 61 50 41 42 42 42 42 40 40 36 36 40 38 38 38 32 33 34 36 39
93 97 82 73 64 48 48 52 61 51 64 87 78 76 80 80 78 80 75 86 84 84 65 50 61 69 64 50 42 41 43 41 40 37 38 41 42 40 47 52 47 37 36 38
86 93 91 86 92 65 56 59 63 76 98 98 94 92 50 40 54 84 83 88 93 54 49 44 45 51 62 64 54 44 42 44 40 37 35 37 39 42 45 51 44 42 43 41
85 79 71 63 58 72 79 91 98 97 92 88 66 50 43 41 45 42 86 86 40 47 44 57 66 65 62 56 66 52 45 43 44 44 39 40 37 35 35 45 47 52 59 57
71 83 96 88 73 73 89 73 86 68 67 60 55 43 38 40 48 48 48 51 56 53 56 55 65 76 83 80 72 66 56 51 50 45 42 44 48 47 48 54 56 54 62 79
67 78 62 57 63 59 63 80 76 51 40 41 36 40 45 50 64 61 51 48 54 61 66 68 69 72 92 88 86 98 89 79 74 64 57 59 56 64 65 74 77 91 84 97
69 69 71 71 84 75 93 83 67 41 36 44 47 57 58 56 64 65 58 48 46 43 45 55 54 70 70 98 88 99 100 100 100 100 99 95 87 96 71 90 98 94 94 100

GFSCGP_700_rhum_081.txt.gz
RH
31 35 32 31 50 53 49 44 41 37 34 35 34 28 24 21 22 26 30 32 32 34 40 46 45 31 27 30 24 16 14 16 18 41 72 90 87 95 86 89 98 100 99 100
39 37 34 35 30 32 34 38 40 39 36 36 36 34 30 22 22 23 23 27 31 35 42 50 48 43 27 27 32 18 13 16 18 44 76 97 95 98 98 98 98 100 100 99
50 44 42 46 40 39 44 41 44 42 36 35 45 43 37 25 22 22 22 21 27 32 35 41 46 44 31 27 33 28 14 15 18 31 66 80 90 91 98 100 100 100 100 99
57 52 59 60 60 54 51 53 58 79 89 75 64 58 40 29 24 23 22 20 20 21 31 37 43 46 40 28 33 34 14 12 19 18 53 75 83 82 77 87 90 93 98 100
53 51 59 62 48 60 57 64 72 88 97 99 66 67 52 38 27 25 23 23 20 20 24 35 35 41 45 29 31 36 15 11 18 19 23 57 71 79 86 90 97 96 99 100
44 44 51 57 65 72 78 92 83 88 99 99 76 73 45 36 30 26 22 22 20 20 23 26 29 40 44 34 30 35 17 11 16 20 20 20 33 56 67 73 93 98 95 98
39 51 53 56 64 67 96 99 99 99 99 92 49 55 46 35 28 26 27 23 22 26 27 30 32 35 34 35 27 34 18 13 13 19 21 22 23 26 44 61 81 97 100 96
40 45 40 52 59 58 73 99 97 88 92 75 45 40 36 32 28 28 27 25 25 25 25 30 33 37 39 36 29 31 20 15 12 18 21 22 25 28 26 35 57 72 100 100
42 42 39 34 37 52 78 96 80 99 98 99 68 43 33 31 27 29 27 28 27 27 27 33 38 38 39 40 30 27 31 16 13 15 21 24 26 28 31 30 30 41 60 90
51 57 45 45 45 61 71 72 93 99 95 96 58 64 51 31 28 27 28 31 30 33 33 33 39 45 47 40 35 26 32 23 16 14 17 24 27 29 31 33 33 35 36 46
75 83 61 53 55 58 82 91 98 99 98 99 97 80 93 49 39 33 36 35 38 43 43 45 44 50 55 51 46 33 30 36 22 17 16 18 22 25 28 29 32 35 38 38
85 83 62 49 41 54 70 82 98 99 97 79 99 92 99 74 58 45 39 42 42 43 42 48 51 51 59 56 49 46 34 31 36 33 19 19 21 24 27 28 30 32 34 38
77 77 72 64 62 74 94 87 94 99 99 98 100 97 100 100 67 57 47 45 46 47 49 48 54 56 77 63 56 51 41 39 43 37 35 21 23 26 27 30 33 37 38 40
49 52 77 92 99 97 99 99 99 99 99 86 92 82 90 94 84 69 62 74 55 46 45 46 49 50 69 78 85 75 65 63 49 49 39 35 23 25 26 29 34 41 46 49
58 58 65 72 90 74 95 99 96 99 98 99 86 98 87 97 97 87 76 70 57 51 46 42 44 45 53 59 64 81 76 85 86 73 57 41 33 23 24 28 32 40 47 51
71 64 62 78 69 60 68 87 88 94 98 97 100 92 98 94 98 98 89 70 52 51 49 43 42 44 46 47 56 57 63 64 90 83 62 71 54 46 36 28 28 34 41 45
78 82 71 70 59 61 68 51 65 71 62 83 67 63 69 88 79 85 71 71 67 47 28 26 35 29 41 46 51 54 64 68 62 51 49 73 77 57 46 47 46 45 39 42
86 84 79 76 64 78 50 44 50 50 46 49 49 55 71 81 86 90 86 88 75 54 33 28 29 28 30 39 48 47 55 64 71 70 58 52 50 53 50 49 46 44 46 48
52 63 80 64 68 60 36 40 41 37 39 42 44 49 66 80 93 81 78 82 74 68 62 52 57 56 52 43 36 36 49 49 50 60 67 68 59 56 50 48 43 44 45 45
41 50 64 69 84 79 44 38 41 39 43 59 53 61 70 77 73 87 78 71 77 79 68 63 45 40 40 37 35 32 28 30 48 51 49 48 52 47 46 56 61 53 51 45
79 83 86 87 86 75 50 48 55 47 82 74 67 72 71 65 70 83 68 58 66 75 54 42 44 36 33 28 25 24 24 26 30 32 42 52 51 48 49 46 53 60 58 51
89 89 93 90 90 86 60 68 57 72 94 80 82 87 84 67 63 54 34 28 24 27 34 26 26 26 24 21 19 17 15 14 13 18 30 37 50 54 49 48 47 58 64 62
97 79 81 74 69 69 63 66 68 78 96 86 88 81 84 76 60 38 43 48 44 31 33 34 33 29 24 21 19 19 18 17 17 16 15 15 34 51 56 53 55 55 63 68
97 95 98 81 85 79 91 99 96 90 97 91 88 90 74 42 39 42 34 31 32 31 30 31 29 28 28 26 24 21 20 19 18 19 31 48 29 32 56 64 65 67 76 84
98 94 93 96 96 96 98 94 98 98 92 75 52 39 36 34 30 29 28 33 38 40 37 37 37 34 32 34 34 32 30 31 32 37 50 63 74 84 69 88 97 92 90 98
99 91 98 98 97 100 97 97 98 92 84 68 45 40 37 35 37 38 40 39 38 39 41 42 39 38 41 40 43 47 49 50 56 65 67 62 57 75 75 77 89 99 100 100

GFSCGP_700_rhum_087.txt.gz
RH
19 29 35 47 46 47 51 53 53 49 46 43 41 37 34 29 26 28 27 28 23 22 22 24 28 26 33 42 36 28 27 30 18 14 18 41 59 91 88 86 99 100 98 98
28 23 19 32 43 46 51 58 59 55 50 47 44 37 34 31 27 26 28 28 24 21 24 29 30 30 33 40 45 29 27 28 23 14 17 45 68 86 93 85 91 100 98 99
20 19 22 29 34 38 36 38 47 47 45 46 40 40 37 32 33 27 28 30 24 22 28 26 29 31 31 38 44 34 30 28 27 13 18 37 61 74 81 79 94 91 99 98
32 17 39 47 35 37 38 37 35 43 47 51 49 63 43 32 33 32 28 32 26 25 29 28 26 29 31 34 46 41 31 28 29 12 19 23 61 73 83 85 82 95 100 98
26 32 26 35 41 42 55 60 59 55 50 64 71 77 36 29 27 25 30 31 28 24 26 24 23 24 31 34 45 46 36 28 29 11 19 19 42 67 85 84 86 87 98 100
28 59 60 58 55 59 64 61 55 64 71 92 61 73 36 33 21 23 28 31 30 25 25 24 24 23 30 34 46 51 45 30 30 11 18 18 20 45 70 80 82 79 98 100
37 41 54 49 57 58 56 57 79 93 98 81 59 76 46 40 46 36 26 31 28 25 27 28 27 23 23 30 43 51 49 32 31 11 18 19 20 21 36 60 71 78 72 76
32 32 32 49 44 50 59 69 68 94 92 94 71 75 72 65 50 44 43 35 30 28 28 27 27 25 22 26 42 43 45 33 30 12 17 21 21 23 23 28 40 59 78 88
39 38 36 33 36 47 64 77 65 71 81 99 83 66 60 52 53 47 50 42 31 29 27 26 24 25 22 25 40 42 52 36 32 15 13 22 24 25 28 29 29 39 68 82
48 48 46 43 42 54 62 56 77 98 98 98 74 66 79 86 62 59 47 44 34 30 26 24 25 24 22 30 45 55 59 47 37 31 14 17 24 27 28 30 31 34 46 63
48 54 67 62 52 49 63 69 71 87 84 99 96 79 100 100 89 75 60 47 35 31 27 23 24 23 27 42 50 54 61 66 48 38 30 15 18 24 27 29 32 35 37 42
67 73 80 63 62 73 55 53 62 81 96 99 99 86 95 94 97 88 76 62 43 34 27 24 22 25 42 44 51 59 70 75 77 57 50 44 21 18 23 26 29 32 35 38
60 73 55 69 84 80 79 84 97 99 98 99 96 84 80 85 97 100 93 98 73 44 34 29 28 40 46 50 60 71 72 80 86 71 63 58 53 32 21 22 26 30 31 33
62 61 57 67 57 71 76 77 82 89 99 99 96 82 79 87 97 99 100 99 95 88 66 50 41 49 54 55 62 66 64 75 76 80 71 53 52 55 55 36 25 26 30 32
64 68 66 64 60 54 56 74 76 78 78 98 90 99 98 96 89 98 98 100 100 86 86 88 73 61 62 64 68 66 65 63 63 65 61 62 68 62 60 56 44 34 29 31
64 82 79 78 66 60 64 64 58 69 77 98 98 99 85 74 72 99 98 99 100 100 91 96 76 73 69 64 56 55 51 54 62 64 67 64 63 66 73 73 61 54 42 34
56 58 63 73 75 70 57 47 62 61 73 94 91 99 99 99 97 98 99 99 99 99 98 99 78 77 68 65 63 56 56 56 53 51 53 54 54 59 57 62 58 62 68 69
58 54 56 71 60 79 49 48 57 66 78 92 84 97 99 97 99 99 99 98 99 98 98 94 95 85 58 47 45 41 41 45 52 54 55 58 60 60 59 55 56 53 57 59
47 50 69 71 66 55 38 40 48 67 66 80 72 88 99 93 77 88 99 99 99 99 97 92 95 74 49 43 34 27 29 30 32 33 37 48 51 51 55 59 60 56 50 52
51 61 82 78 83 82 40 33 60 70 75 72 61 58 67 100 92 96 99 99 99 99 94 84 76 55 34 29 30 27 27 26 27 30 30 32 32 34 42 46 49 48 46 46
63 68 83 83 93 73 57 35 31 57 81 73 88 85 82 97 92 87 96 98 98 97 61 38 30 28 26 24 22 21 18 16 14 13 14 16 16 17 18 21 24 27 32 38
79 78 80 96 100 87 59 47 46 48 74 89 94 100 99 99 100 96 97 96 69 50 49 46 43 38 29 20 18 19 18 17 13 11 10 9 9 7 6 6 6 6 6 6
86 92 96 97 89 79 58 59 54 84 100 100 100 99 98 98 98 99 88 59 58 62 49 32 28 24 21 20 21 24 22 18 15 13 13 13 11 11 9 8 7 8 8 9
83 98 98 97 98 97 100 94 100 100 100 97 99 98 97 97 97 96 97 95 91 65 37 21 18 17 16 17 19 21 19 18 19 15 14 13 14 15 13 12 15 22 30 34
97 95 96 98 99 98 98 100 99 98 100 98 96 98 98 96 95 92 77 47 43 34 30 29 28 27 25 24 24 22 19 18 22 22 20 18 16 16 18 24 31 43 52 51
96 96 95 97 96 97 98 98 98 98 96 95 94 96 88 62 60 59 58 51 43 40 39 36 34 33 30 29 30 31 32 31 30 29 29 27 24 27 35 48 57 60 58 54

GFSCGP_700_rhum_093.txt.gz
RH
21 37 32 40 38 39 43 43 51 55 51 50 44 41 43 41 39 40 38 37 35 33 27 21 21 20 20 21 22 24 37 40 30 28 33 32 15 17 33 64 87 93 99 97
22 32 34 39 38 40 46 49 51 48 48 49 47 44 44 44 39 38 37 35 34 33 30 25 20 22 22 22 23 27 38 43 37 30 33 32 15 17 44 73 81 95 100 100
14 18 14 29 37 40 42 43 44 46 47 47 44 45 42 36 33 30 31 31 32 33 32 29 23 29 24 22 25 32 35 43 44 32 32 31 16 18 55 75 77 98 97 98
35 28 38 31 28 31 34 30 33 40 40 43 47 44 44 24 19 18 19 19 19 22 30 30 25 29 22 23 28 31 34 43 47 34 32 29 16 18 58 79 78 81 99 98
48 38 26 36 28 29 34 27 35 38 53 61 57 60 25 28 21 28 36 34 37 12 19 28 25 28 24 24 27 30 35 40 48 43 32 26 18 18 48 73 79 75 83 100
45 49 51 39 40 46 42 41 62 64 64 66 43 56 44 38 43 38 33 37 47 35 14 24 25 29 27 25 28 30 33 39 50 48 33 24 18 18 30 70 81 79 77 97
41 44 58 56 41 47 48 66 69 64 74 43 67 73 56 56 47 50 46 40 47 49 40 22 26 28 27 24 28 28 33 38 50 50 35 24 19 20 21 55 79 82 73 76
49 50 48 59 54 54 68 65 56 50 64 65 67 45 58 58 55 66 52 60 52 47 46 38 27 28 30 25 25 25 31 38 51 52 40 25 19 21 21 29 57 77 75 76
41 39 39 48 64 63 72 61 55 62 83 73 59 51 54 58 75 75 72 65 67 61 44 44 33 30 30 27 25 24 27 37 52 56 44 23 20 23 23 26 32 40 50 67
37 69 55 44 51 53 51 54 67 63 83 81 60 74 74 62 54 66 83 83 56 56 51 48 41 35 32 29 26 25 26 38 55 58 43 23 20 26 24 27 28 30 37 52
54 58 76 60 60 50 58 59 56 65 85 72 78 60 59 64 79 86 92 81 97 68 52 48 46 40 35 32 29 30 28 37 59 63 44 31 17 26 28 30 31 32 33 40
57 71 83 80 72 61 63 60 62 64 91 96 96 68 62 70 79 88 94 89 87 98 62 57 45 41 35 31 29 30 30 39 61 72 60 44 19 22 27 30 34 35 35 39
67 73 97 97 89 87 79 82 80 82 88 96 86 62 50 67 76 88 87 93 89 99 90 68 53 37 36 33 32 33 33 50 69 73 70 53 38 18 24 28 31 33 35 38
55 54 60 70 75 71 71 56 67 72 93 81 83 68 41 60 89 100 92 98 99 97 100 86 73 54 61 42 35 33 44 66 74 76 78 62 56 39 21 21 26 29 31 33
86 69 56 61 56 52 47 36 40 50 57 91 71 76 66 90 89 100 100 98 96 95 99 99 99 96 58 71 91 46 58 64 71 76 78 74 68 67 55 40 31 26 24 27
54 64 51 50 49 47 41 32 35 47 55 64 66 67 95 90 91 99 99 100 100 96 99 99 100 100 100 100 100 99 78 67 73 75 91 98 88 79 77 73 70 64 60 54
48 51 47 65 53 38 30 44 49 47 57 65 66 75 85 82 89 98 99 100 100 98 96 98 100 100 100 100 100 100 97 87 92 96 100 98 88 82 74 70 72 70 61 56
53 46 45 56 48 61 55 62 54 50 54 46 48 59 72 80 90 98 98 99 99 99 98 99 97 98 100 100 100 100 100 100 99 94 100 100 100 99 99 87 78 78 69 67
53 58 67 74 69 43 38 47 66 53 39 32 62 76 72 78 89 97 99 99 98 98 98 98 98 96 96 97 98 95 98 98 90 80 80 79 69 68 74 75 77 78 77 76
57 63 48 76 70 66 56 69 59 47 44 28 40 43 69 100 100 90 90 98 97 96 97 86 85 83 93 88 77 75 61 36 32 29 29 31 32 30 32 35 39 45 50 53
72 72 86 100 86 63 49 57 63 64 57 40 41 36 98 100 99 100 92 100 98 98 80 60 50 47 42 39 50 42 38 36 34 25 22 19 16 16 16 17 19 21 22 23
82 85 88 98 91 91 76 81 87 89 74 50 48 76 100 100 99 99 99 98 98 84 66 56 51 45 37 36 32 29 24 24 23 19 18 16 15 13 14 14 14 13 12 10
96 100 95 100 99 99 84 90 93 99 100 99 100 100 100 100 98 97 97 98 97 92 70 82 78 74 35 30 28 24 23 28 28 26 23 19 17 15 15 13 13 14 13 12
85 92 97 98 98 98 98 99 91 96 99 98 100 100 98 96 97 97 97 96 97 96 96 88 82 42 36 35 33 31 29 27 23 21 20 18 18 21 19 18 17 16 14 13
86 94 98 98 97 96 100 100 98 99 100 100 100 96 100 100 98 94 89 78 88 87 64 48 43 43 41 37 34 32 32 31 32 32 31 29 28 29 26 24 24 23 24 29
98 97 97 96 98 97 97 98 96 96 97 96 97 100 98 98 99 99 92 80 64 56 52 54 53 48 43 39 36 36 35 36 38 40 39 37 37 37 37 37 37 39 44 46

GFSCGP_700_rhum_096.txt.gz
RH
11 33 39 40 49 48 43 42 43 41 44 47 43 40 40 42 44 46 46 44 41 40 31 29 22 18 21 21 21 20 21 23 32 35 34 34 33 28 14 20 52 80 80 95
43 31 34 38 43 51 48 42 42 40 50 52 44 41 40 42 44 44 42 41 41 42 42 36 31 27 19 20 20 20 20 22 32 37 34 32 34 23 15 30 62 86 81 96
32 34 36 46 47 51 50 43 40 40 40 44 44 42 39 36 37 36 39 44 43 43 36 33 32 31 25 20 20 21 21 23 32 44 38 33 34 18 16 45 65 76 80 100
39 33 34 46 48 47 42 40 40 42 43 38 49 30 31 34 31 33 45 70 42 24 24 29 31 32 30 22 23 27 22 24 36 45 43 34 36 16 16 46 65 75 87 95
60 47 36 52 40 38 34 33 41 35 33 37 42 46 27 26 30 43 63 43 36 44 34 15 20 29 31 26 27 27 23 26 34 41 46 38 37 16 17 34 65 73 85 96
66 44 64 50 50 44 40 40 45 53 51 55 39 36 25 28 47 72 65 52 44 51 55 48 19 20 30 26 28 23 24 28 33 42 48 40 37 17 18 25 61 76 80 90
64 57 70 63 44 46 58 56 57 59 60 42 41 40 27 55 85 90 54 73 73 48 44 47 41 19 26 27 29 23 26 30 34 38 48 42 36 17 19 20 41 74 80 86
46 48 64 54 60 55 62 50 41 40 36 30 52 41 39 75 78 92 90 92 91 60 54 47 42 31 26 28 29 24 27 30 30 40 50 46 37 17 20 19 24 61 76 72
43 40 51 58 66 66 71 63 56 53 67 51 34 41 56 82 71 81 87 97 74 59 48 43 40 39 27 29 28 25 27 30 30 38 54 54 40 18 22 21 21 34 61 70
41 59 58 51 74 65 67 59 60 59 65 54 37 42 46 64 84 88 90 90 57 69 70 44 42 40 30 31 29 26 26 28 28 36 57 62 42 18 24 22 22 25 37 49
48 51 75 59 64 67 75 69 65 60 64 49 46 45 89 90 92 93 100 67 62 63 64 57 49 41 38 39 33 26 25 26 29 38 58 65 43 17 25 24 23 26 30 37
69 66 64 59 60 65 54 53 58 49 68 70 68 52 92 76 83 96 98 98 84 68 66 71 65 50 47 45 38 28 27 26 31 46 64 67 47 17 24 28 26 26 32 35
76 74 80 86 80 76 69 77 76 82 80 76 67 54 58 60 82 100 83 99 93 75 69 92 90 64 56 46 42 37 35 35 34 53 72 69 52 25 21 29 30 29 32 36
77 77 64 54 60 67 81 82 81 76 68 58 59 51 49 74 100 97 85 100 98 88 77 98 98 99 90 51 43 38 36 41 43 65 77 72 68 47 20 27 30 31 33 36
86 74 70 72 70 66 60 56 58 59 60 60 51 55 65 96 80 95 99 98 100 100 94 99 100 99 100 88 71 63 42 46 51 76 85 91 84 64 39 24 27 31 32 34
79 71 61 66 60 51 48 45 45 50 55 58 61 60 93 85 85 98 100 98 100 100 94 92 99 100 100 100 98 68 68 87 90 89 99 87 78 73 63 46 29 27 27 28
59 68 51 57 58 45 40 54 47 52 61 64 61 73 90 73 80 92 99 98 98 98 98 98 96 96 99 100 99 84 71 97 100 100 100 98 89 86 90 90 85 80 67 50
76 61 61 56 47 36 60 62 70 64 77 46 78 98 79 71 89 99 100 95 98 98 98 97 98 96 100 99 100 97 100 100 100 100 100 100 100 95 98 99 94 94 83 78
51 75 65 53 42 50 76 78 70 78 76 45 35 50 67 95 100 100 99 96 97 97 98 95 98 98 96 93 98 100 99 100 100 100 100 100 100 100 100 100 93 88 89 88
54 53 68 69 45 50 99 77 52 45 63 47 46 36 98 100 100 100 99 99 97 97 87 70 70 72 92 96 97 96 96 95 96 98 99 98 97 92 97 100 99 100 100 100
90 95 85 80 66 73 67 66 68 66 96 64 57 57 100 100 99 100 99 100 99 97 91 66 56 55 49 48 70 79 93 95 83 53 59 61 61 75 59 33 29 33 36 37
86 86 89 90 80 76 80 76 84 93 100 100 97 98 100 100 98 98 97 98 98 97 86 71 58 59 56 38 34 39 39 39 54 84 76 40 23 18 18 18 18 15 13 13
96 93 98 94 100 99 80 92 100 97 93 94 94 93 96 97 96 97 97 96 95 90 76 87 92 89 47 34 34 30 30 32 32 30 28 29 44 50 34 23 20 17 16 15
87 95 99 97 94 96 98 100 100 100 95 97 97 97 98 100 97 93 82 83 79 95 93 96 80 55 43 38 36 36 36 35 34 35 36 31 27 22 20 23 24 20 19 20
83 86 97 98 98 97 93 96 98 98 98 97 98 97 97 94 97 96 93 88 84 87 84 71 52 49 45 42 37 33 31 30 30 31 32 31 31 32 31 31 33 36 32 33
95 98 96 93 96 97 97 98 98 97 99 100 99 98 97 96 93 93 93 96 82 74 68 61 58 54 51 47 45 41 37 34 33 33 33 31 31 36 38 38 38 41 44 44

GFSCGP_700_rhum_099.txt.gz
RH
58 35 26 28 41 42 41 41 50 43 40 41 40 38 32 31 34 35 37 38 38 38 37 35 34 31 33 30 41 23 22 22 21 21 24 33 34 35 32 32 16 18 42 82
44 28 21 31 34 45 48 90 82 55 46 46 37 38 35 33 33 35 37 39 39 39 38 38 38 39 38 39 25 23 22 22 21 21 26 35 35 36 31 32 16 25 53 82
47 25 22 27 30 37 68 83 64 50 44 48 45 40 36 33 34 35 36 37 37 38 40 42 43 44 46 47 30 22 21 21 20 20 26 35 33 32 30 29 17 38 62 79
46 24 28 28 31 34 42 53 55 53 65 62 38 31 27 28 30 32 33 37 45 62 68 68 64 48 53 47 42 30 21 22 17 24 27 35 39 33 32 24 16 34 63 71
53 25 30 32 35 40 38 45 56 60 45 38 36 39 30 28 28 27 39 58 73 80 83 85 83 79 49 48 49 31 26 22 17 25 28 39 46 37 32 20 18 28 68 66
53 41 36 34 39 45 50 44 37 37 32 33 30 30 30 27 23 35 61 71 77 83 94 94 91 75 41 28 47 41 29 23 20 25 28 38 46 42 32 18 19 22 71 68
60 71 42 40 47 52 50 46 47 48 45 40 33 35 28 41 54 70 73 71 75 86 95 52 52 52 34 40 45 50 31 22 25 25 28 35 45 45 33 18 19 23 66 73
75 80 52 63 56 59 48 45 59 56 55 40 33 26 25 44 62 70 69 76 86 94 97 52 43 44 43 32 46 52 31 24 26 25 28 32 48 47 36 19 19 22 54 72
78 50 78 68 59 53 50 51 50 72 50 37 32 41 61 58 61 65 71 85 86 97 63 60 54 42 43 32 29 46 30 27 28 25 27 32 51 48 38 20 19 19 41 62
44 68 54 65 69 55 62 52 57 50 48 36 26 32 60 74 72 68 76 95 92 88 54 62 59 44 42 38 32 40 28 30 28 26 28 36 54 52 42 20 20 19 28 40
45 63 48 59 65 56 53 61 54 44 46 55 55 55 69 64 66 75 97 79 84 85 58 61 71 63 58 46 91 46 30 32 26 27 29 38 58 57 46 21 22 20 25 31
44 61 56 54 50 84 47 60 50 56 49 47 56 73 68 53 64 83 93 81 86 86 70 62 62 91 73 58 93 62 39 36 28 28 32 45 66 64 48 21 23 24 24 30
73 56 50 65 60 76 68 78 49 62 72 59 54 68 50 65 90 90 85 83 96 96 79 66 66 99 92 97 99 66 58 45 36 33 37 52 74 70 50 22 24 27 27 33
84 69 43 48 50 48 66 53 59 56 48 47 44 44 61 98 80 76 100 99 97 98 92 69 83 99 100 100 83 59 52 50 46 42 49 65 78 74 52 23 22 29 31 32
84 94 75 61 45 50 61 69 67 66 52 50 50 48 99 67 70 78 98 100 98 99 95 81 84 100 100 100 100 98 75 66 55 55 57 78 82 75 56 31 20 29 34 36
92 76 76 55 60 53 48 44 41 42 45 48 46 84 97 84 73 84 92 100 100 99 95 94 97 95 100 100 100 100 100 100 95 69 79 74 67 70 64 48 28 22 31 34
91 73 72 52 41 36 47 43 37 44 55 54 66 95 99 79 74 97 100 94 99 99 100 100 99 99 94 99 100 100 100 100 99 100 99 99 90 91 80 64 46 26 28 33
82 54 54 48 36 41 54 58 55 63 83 88 79 92 97 82 98 100 100 87 99 100 94 95 97 95 99 95 97 99 100 100 100 100 99 100 100 100 93 79 71 58 46 39
88 67 50 40 38 53 62 80 80 69 99 90 80 82 95 89 99 99 98 98 99 98 83 67 75 93 95 98 94 97 98 99 100 100 99 100 100 100 99 99 98 100 84 99
74 74 56 52 35 53 98 87 91 81 83 98 65 60 97 98 99 98 98 99 98 97 89 70 60 53 61 94 98 94 96 99 100 100 97 99 99 98 99 99 100 100 99 100
66 77 68 59 51 88 67 42 60 70 98 98 83 67 94 99 98 98 98 98 98 98 90 77 67 64 57 44 71 94 95 95 96 94 92 97 96 98 99 98 100 98 100 99
92 95 76 75 61 79 76 65 66 95 100 97 95 93 94 92 89 92 94 98 97 97 87 94 86 86 70 41 39 44 62 73 83 88 97 98 89 79 53 80 94 80 62 53
95 99 97 92 99 91 87 93 99 100 92 96 98 92 96 97 99 98 93 92 91 97 99 98 99 90 77 45 42 42 44 37 36 40 51 44 66 84 68 74 58 30 30 27
90 82 96 95 97 94 90 93 96 100 98 97 96 93 94 90 89 95 94 94 96 97 100 100 94 58 48 45 42 40 40 39 39 36 31 30 28 36 56 72 64 71 76 56
91 82 98 96 94 94 93 94 98 97 97 94 93 95 95 92 91 91 91 95 96 85 82 74 66 58 53 48 45 42 39 38 39 37 36 33 36 37 37 38 41 36 36 35
94 92 95 96 93 98 96 97 96 96 97 95 95 96 96 97 91 82 79 89 95 94 87 77 70 67 62 57 52 49 46 43 40 38 39 39 42 40 38 37 41 37 37 35

GFSCGP_700_rhum_102.txt.gz
RH
58 68 61 31 32 38 38 35 34 34 39 42 40 39 33 32 32 30 30 32 32 31 31 31 27 26 25 26 34 43 51 51 31 21 21 21 22 24 33 37 31 29 29 15
38 74 71 37 25 23 33 37 38 63 55 59 67 76 50 38 33 31 31 33 35 35 35 36 35 34 30 28 32 38 50 56 38 22 22 22 21 24 35 36 30 30 28 15
29 44 70 40 28 20 26 34 63 65 65 93 98 86 65 46 33 31 31 34 35 37 38 38 38 38 38 38 36 36 37 41 38 26 22 22 22 24 32 26 29 32 24 15
27 26 54 38 25 20 27 32 60 66 84 94 59 64 46 41 38 34 33 34 36 36 40 39 40 42 42 41 42 51 46 51 50 19 20 21 21 22 30 32 31 31 21 17
27 31 45 43 21 20 27 30 59 52 73 91 70 87 53 36 31 32 31 33 41 48 59 64 56 61 47 44 43 47 51 52 56 25 18 20 25 26 36 38 35 30 18 18
28 38 83 48 32 23 28 49 69 72 71 94 74 69 40 37 37 32 47 52 68 76 79 81 81 80 83 80 54 53 54 52 56 30 26 21 27 28 42 43 41 32 17 18
44 56 52 34 39 41 48 67 57 72 90 66 40 36 40 37 37 54 63 69 79 81 84 92 73 56 46 34 43 48 60 61 61 32 29 26 28 29 42 43 44 34 17 17
37 94 58 45 33 42 49 53 60 50 50 40 32 66 64 51 60 55 66 69 85 98 96 88 60 51 42 36 33 38 43 67 55 30 31 28 30 29 35 41 46 36 17 17
96 91 62 47 40 51 44 47 48 94 85 87 60 80 70 65 67 72 82 89 87 81 69 63 52 49 43 34 36 33 36 71 48 27 32 30 32 29 32 42 46 36 18 18
78 98 62 63 58 57 59 60 84 95 96 96 48 58 73 84 78 84 95 81 58 49 58 57 59 52 50 44 39 39 44 44 24 30 34 34 33 33 34 46 47 39 19 18
85 87 60 67 84 73 67 96 91 96 70 77 69 98 99 92 86 95 66 45 66 76 77 66 57 55 69 65 49 50 72 45 43 43 36 35 36 48 44 51 49 40 19 20
51 68 61 53 72 70 71 66 76 92 43 77 97 98 99 97 84 65 61 78 96 100 87 70 56 56 99 92 80 80 60 99 86 52 39 36 53 39 58 54 52 38 19 21
60 66 94 67 65 60 80 83 67 56 65 54 61 99 99 71 54 57 74 97 96 96 89 78 64 61 99 99 96 100 81 100 99 64 50 51 94 47 64 63 57 38 20 22
63 55 91 68 56 77 78 74 60 76 75 67 74 89 99 60 60 69 85 98 96 100 98 94 84 93 100 99 99 100 100 100 95 99 92 79 100 83 81 75 62 36 21 23
60 96 86 69 66 65 97 98 92 61 54 91 77 98 85 77 66 72 99 100 100 100 97 91 97 83 96 100 100 100 99 100 93 78 64 91 100 99 88 83 70 30 24 28
94 98 78 96 79 88 52 56 54 51 55 56 76 98 98 81 79 93 99 91 100 100 100 98 100 100 90 99 100 100 100 100 100 99 99 95 100 94 85 88 79 38 24 26
91 94 86 57 48 52 60 47 65 78 85 95 97 99 99 84 93 97 93 98 99 100 98 94 91 92 98 95 98 98 100 100 100 100 100 100 100 100 98 97 88 45 29 30
96 77 67 45 41 83 81 84 97 94 94 77 94 54 53 78 94 97 98 100 100 92 71 69 88 100 97 96 99 93 96 100 100 100 100 100 100 100 100 100 87 57 37 34
68 76 57 56 56 77 84 81 97 98 91 79 59 48 48 100 99 98 98 100 100 92 79 66 58 56 63 98 98 96 97 95 98 100 100 100 100 100 100 100 97 80 59 47
67 69 60 48 48 83 94 70 60 78 99 92 82 75 90 97 99 99 98 98 98 97 95 73 66 70 56 44 74 95 97 98 96 98 99 100 100 100 100 100 100 100 100 100
83 60 70 57 63 93 69 43 63 81 97 90 96 96 92 85 91 97 98 98 98 98 96 92 91 83 91 47 45 46 91 96 97 97 96 96 98 100 99 98 97 98 99 100
93 96 94 92 85 95 64 63 54 99 100 100 96 98 97 97 97 99 100 100 98 97 97 92 93 93 72 55 46 50 49 66 92 92 95 97 97 96 96 96 91 98 96 98
92 96 100 93 98 90 90 94 94 99 95 98 97 96 92 89 86 92 98 100 99 96 95 90 98 86 52 48 42 42 45 45 51 56 52 54 68 82 91 94 94 97 97 84
97 99 93 96 92 95 92 97 96 98 97 98 94 93 89 86 86 87 88 88 90 93 85 82 72 64 57 53 49 44 41 39 37 38 43 46 44 45 65 79 86 90 91 95
87 94 99 93 93 89 94 100 100 99 98 96 95 94 92 90 89 85 80 80 85 88 90 84 71 67 63 59 57 54 48 44 44 41 40 42 43 46 54 54 64 70 76 83
82 92 94 95 95 97 98 99 98 97 96 92 84 76 73 73 79 80 80 78 78 76 74 78 83 78 70 65 61 60 57 55 51 50 47 42 42 46 47 47 45 48 48 52

GFSCGP_700_rhum_105.txt.gz
RH
38 37 41 90 55 43 40 46 48 38 30 40 51 46 38 39 42 39 37 35 34 32 32 32 31 28 23 22 24 28 31 34 39 47 41 32 20 21 22 23 25 33 30 29
80 49 31 41 77 74 46 37 46 42 37 54 51 53 54 46 44 41 34 33 33 31 33 32 32 31 27 23 24 26 26 32 37 44 50 41 24 22 22 23 25 31 33 30
88 68 54 30 38 69 69 33 32 31 46 64 64 59 56 53 45 42 38 34 32 33 33 33 32 32 30 26 26 27 30 32 32 37 43 41 35 23 22 22 23 30 33 30
76 65 77 46 42 89 48 29 25 25 42 88 90 87 55 53 59 42 39 37 34 35 36 37 37 37 37 34 30 34 37 41 38 35 36 39 33 25 23 22 23 33 37 30
78 69 58 43 28 66 68 26 27 22 46 83 99 98 58 68 61 52 50 38 45 46 41 38 38 38 39 40 37 36 40 51 63 58 48 52 41 28 24 22 23 34 36 34
72 47 32 30 53 59 60 35 44 55 80 91 74 69 58 64 70 44 66 70 68 66 50 43 42 42 41 41 42 42 42 44 48 68 45 47 41 32 22 21 26 35 40 37
45 35 34 38 73 65 65 47 88 97 98 88 55 85 48 58 60 66 75 83 75 70 64 56 49 43 44 42 42 42 42 46 47 48 56 54 43 38 22 24 29 40 45 40
35 48 48 50 64 68 54 50 72 79 86 65 52 61 49 59 87 69 71 79 81 83 80 64 57 54 46 45 42 40 39 41 45 46 46 56 54 44 29 25 30 42 47 42
42 65 66 60 59 58 60 66 54 64 66 78 48 53 66 65 81 99 94 94 84 76 69 69 64 54 44 33 32 28 22 17 31 48 38 62 72 46 40 27 30 37 47 43
76 86 63 56 50 48 48 49 52 75 91 93 81 89 88 88 97 98 96 81 77 70 64 55 45 39 32 36 38 35 26 25 62 39 40 62 76 54 57 32 29 31 49 43
94 99 90 59 52 55 56 55 66 81 94 97 96 99 99 99 97 98 64 61 43 35 46 61 63 54 49 47 60 51 41 42 64 54 54 66 75 66 70 38 32 32 51 44
95 88 66 79 88 73 73 68 85 78 98 98 98 99 99 98 80 56 44 48 68 77 77 68 64 57 53 85 97 100 68 52 57 64 89 87 78 78 68 40 40 44 54 44
78 75 71 91 95 94 92 90 79 84 98 99 98 98 99 97 90 94 94 98 86 85 87 79 76 71 85 99 100 99 100 92 84 84 94 99 76 85 73 49 98 61 59 47
73 63 84 93 98 86 82 94 98 97 96 99 98 98 92 86 86 92 100 97 99 98 94 84 78 76 96 99 98 98 100 100 94 100 99 98 90 76 99 99 99 72 68 47
47 64 87 86 95 95 86 98 98 93 89 98 98 98 100 100 100 100 95 98 99 100 99 92 85 78 76 93 98 100 100 99 98 100 100 97 99 100 100 98 93 90 80 46
80 94 98 99 91 96 96 97 96 95 98 98 96 98 100 100 100 98 98 100 100 99 91 92 91 89 89 85 91 99 100 96 98 100 99 100 100 100 99 98 80 99 94 49
93 92 87 97 89 82 96 99 87 96 99 86 98 100 99 100 99 91 89 90 89 73 68 61 60 78 87 92 91 80 95 99 100 100 96 100 100 99 100 98 97 96 99 66
82 79 83 47 58 94 97 98 98 78 93 100 100 78 99 100 100 100 100 99 98 82 74 63 60 53 51 84 92 93 96 100 98 99 100 99 100 100 100 99 100 100 99 95
73 76 86 82 94 96 84 75 91 96 93 91 86 84 100 100 100 97 100 99 97 95 93 73 64 69 56 43 63 94 96 94 98 97 97 100 100 100 99 90 100 100 99 100
68 84 87 82 81 96 91 64 75 96 96 88 90 86 86 94 94 92 98 99 94 93 96 90 88 90 91 52 39 46 94 98 96 98 98 94 97 99 100 100 100 100 100 98
55 68 72 82 96 78 62 45 65 90 100 100 100 93 92 89 91 98 98 97 95 95 94 99 100 90 62 66 41 41 44 65 91 96 95 96 97 95 98 98 98 100 100 100
74 95 81 88 90 94 70 59 53 98 100 100 98 95 92 88 87 85 88 98 97 97 94 91 94 86 53 48 42 38 39 40 54 71 91 97 97 98 96 96 96 97 98 98
89 92 84 95 99 98 97 91 94 100 100 98 96 89 85 84 82 85 89 88 92 89 86 80 73 66 58 51 47 42 38 37 36 41 45 51 78 90 89 92 96 96 95 96
99 88 86 100 97 97 91 95 95 96 98 96 89 86 84 85 83 81 76 75 77 84 90 85 75 69 65 60 56 51 48 44 41 42 42 44 49 49 67 74 74 79 86 93
85 94 99 92 91 96 95 96 95 93 92 90 89 85 74 69 75 79 76 74 72 69 72 78 84 82 77 72 66 60 56 53 49 46 46 46 47 49 53 53 53 62 76 92
86 92 93 95 91 92 97 96 95 94 94 93 82 72 67 63 61 67 70 74 75 73 67 61 60 64 63 63 64 63 62 59 56 54 51 50 49 51 52 51 54 53 52 57

GFSCGP_700_rhum_108.txt.gz
RH
61 60 49 52 61 50 88 58 46 32 19 45 42 30 43 45 35 36 39 38 38 37 32 29 28 28 27 28 23 19 20 27 32 36 40 44 43 44 25 22 22 23 25 30
42 61 58 53 50 45 38 62 78 54 42 40 50 45 23 49 45 35 38 38 38 36 33 30 33 33 32 28 25 20 21 25 28 34 33 39 48 44 43 29 23 23 24 27
41 30 35 45 63 77 47 35 64 76 49 40 51 61 52 45 50 46 38 38 42 40 37 37 35 33 32 31 30 23 22 23 27 30 29 34 56 51 39 37 27 23 23 24
52 41 49 57 85 83 68 40 55 76 61 38 42 70 57 46 42 44 46 44 46 50 45 41 37 35 35 34 34 26 23 28 30 37 44 36 39 39 38 34 32 25 24 24
59 63 54 67 68 65 46 44 67 67 52 31 37 82 55 52 49 40 44 49 54 58 51 44 38 44 38 34 30 28 25 32 29 43 55 64 53 53 45 43 34 26 25 24
47 49 76 44 34 34 51 52 57 68 34 54 40 74 58 48 49 71 72 66 61 66 53 56 49 44 40 34 31 29 31 29 33 34 38 51 69 61 53 49 39 28 25 24
48 36 29 34 35 35 42 49 81 75 83 76 55 71 63 79 82 76 86 70 74 71 58 59 56 53 43 41 42 41 43 44 39 35 37 39 52 62 58 48 44 28 24 26
69 47 47 53 65 65 70 57 61 94 90 79 70 80 83 93 98 100 96 88 76 70 68 66 69 64 56 47 44 42 42 47 57 60 52 45 43 48 59 52 42 31 27 30
86 51 52 52 56 86 60 72 54 60 80 70 76 84 100 100 94 99 99 98 87 89 76 71 63 54 49 45 41 38 40 42 45 49 51 54 47 50 53 51 47 37 30 32
98 89 62 69 65 74 72 63 61 70 78 87 73 74 99 98 100 100 98 100 100 99 93 77 64 54 48 46 44 41 39 39 38 38 37 36 37 54 61 53 52 43 32 38
100 98 67 64 69 72 72 68 60 61 66 96 96 98 98 98 98 92 97 99 95 67 57 53 46 39 28 26 24 24 24 24 24 28 28 29 29 59 59 63 65 52 40 42
98 98 85 85 69 64 78 70 61 67 79 92 96 97 98 97 99 97 94 98 99 71 71 68 58 48 42 39 38 34 46 53 48 40 36 45 56 66 68 70 65 55 57 44
93 96 83 72 88 93 87 76 81 77 93 97 96 97 97 98 100 99 97 100 95 74 64 60 60 56 54 61 74 81 100 93 98 60 53 64 71 73 94 93 78 70 76 50
83 91 93 96 89 88 98 96 98 86 98 96 97 98 98 99 100 100 100 99 76 71 70 71 72 68 72 96 98 98 98 97 95 94 86 79 79 78 93 87 64 67 91 56
69 86 98 98 99 98 98 99 98 99 98 94 98 98 100 100 99 100 99 98 89 76 72 74 74 70 74 83 96 98 98 96 100 82 88 99 96 95 84 97 79 100 91 91
96 97 98 97 97 98 96 98 97 98 98 97 98 98 99 100 99 100 100 94 68 64 56 51 50 64 78 78 82 91 93 95 98 99 88 99 100 84 93 80 73 91 97 100
90 97 94 96 97 93 87 96 97 95 96 98 99 99 98 98 99 100 100 93 78 78 63 57 57 51 44 59 73 76 77 82 90 98 97 93 97 99 100 98 100 100 99 96
92 99 91 90 87 88 97 97 98 84 100 97 100 100 100 99 98 100 100 99 93 93 83 78 73 72 63 42 45 81 80 79 88 90 99 100 99 98 97 95 77 100 100 90
98 96 97 96 100 96 90 95 97 99 99 100 100 100 100 100 100 100 100 100 97 94 92 82 79 74 80 48 41 53 90 88 89 86 94 94 98 100 100 100 96 94 100 99
92 96 97 96 92 95 86 79 100 91 99 100 100 100 100 100 98 95 96 95 96 99 89 79 75 74 66 54 41 41 48 67 94 83 86 97 95 97 97 98 99 100 100 100
72 71 84 94 91 79 74 80 96 92 94 96 98 98 98 97 92 86 87 88 89 91 87 73 74 78 54 50 40 35 34 39 52 72 89 92 97 98 96 94 96 98 99 99
76 87 81 92 84 92 76 66 77 93 100 98 98 93 84 81 79 81 81 83 82 80 81 76 71 66 60 50 42 38 37 35 34 36 42 59 76 94 96 96 97 96 92 97
86 87 89 99 97 100 99 92 98 100 100 97 89 86 82 81 80 77 77 74 75 75 78 79 75 68 62 58 53 49 46 43 41 38 37 37 41 46 64 80 97 96 95 96
99 85 75 94 97 99 100 100 100 100 96 90 85 86 83 79 82 84 76 71 69 67 67 69 74 76 75 71 65 61 56 51 47 45 44 39 35 36 38 45 62 85 87 97
90 97 94 88 92 95 96 99 98 96 92 87 80 71 63 64 58 58 63 66 70 70 68 64 61 60 59 59 61 63 62 59 56 52 49 49 48 46 42 38 38 43 46 55
93 94 95 95 88 88 92 93 93 92 89 86 83 74 68 66 62 58 58 59 60 63 67 67 64 61 59 60 59 57 56 56 56 53 49 47 46 50 54 55 54 51 50 53

GFSCGP_700_rhum_111.txt.gz
RH
36 39 37 36 52 61 67 57 53 51 51 44 62 50 38 19 37 32 26 15 30 40 39 35 34 34 32 30 27 26 22 21 19 23 37 42 43 45 45 44 32 23 23 24
50 48 41 36 47 60 39 41 58 52 49 55 56 70 46 30 53 30 48 23 24 38 42 38 36 34 32 32 32 31 28 25 20 20 26 32 36 41 45 44 44 43 27 25
73 47 57 59 46 41 45 84 79 77 60 47 59 87 42 45 59 31 44 58 44 35 40 43 40 35 32 32 32 32 31 31 26 20 22 29 37 45 52 52 42 39 41 40
64 54 65 63 60 64 82 65 85 79 57 65 55 67 41 43 46 33 30 50 58 49 37 40 43 41 38 36 34 34 33 32 27 22 23 28 30 37 35 42 42 50 43 36
42 62 76 81 58 64 72 58 56 63 71 96 67 77 46 48 58 56 45 45 51 52 45 44 44 42 40 41 36 33 33 30 27 22 24 27 35 46 62 73 61 48 40 41
50 47 44 29 28 32 36 51 63 67 78 95 64 55 38 49 56 58 63 48 46 52 57 50 48 45 44 44 41 34 33 32 30 26 26 36 38 48 56 86 68 54 49 45
58 51 49 38 37 41 46 55 72 94 97 81 42 51 43 71 73 67 70 69 58 53 67 55 56 50 46 47 44 38 34 35 32 31 29 36 37 43 51 62 53 53 48 44
100 62 62 55 62 66 65 77 83 94 94 75 59 84 100 99 100 99 99 99 94 82 71 79 76 77 68 71 62 50 43 34 33 30 29 33 39 40 40 43 48 52 46 45
99 82 74 80 78 63 70 75 63 94 82 98 82 99 97 98 99 100 95 99 99 91 92 81 83 76 72 69 69 69 64 51 50 48 44 43 42 45 49 55 58 55 55 53
98 94 70 68 73 80 80 78 90 95 96 88 78 97 97 97 97 98 98 99 100 100 96 95 88 74 70 67 66 58 52 50 48 49 53 54 53 52 50 52 54 54 56 58
97 100 66 55 72 91 88 78 83 86 76 97 95 97 97 97 96 97 98 98 100 99 100 97 92 81 74 72 69 63 52 48 46 44 42 39 38 38 38 42 48 56 61 64
94 96 98 70 70 69 91 98 79 66 81 90 93 98 94 97 98 97 97 97 94 98 99 99 98 84 63 52 52 47 38 32 32 32 32 32 30 29 31 47 57 59 65 69
99 99 96 67 77 80 82 86 87 87 91 91 97 98 96 97 100 95 97 98 94 98 85 80 80 62 56 53 46 41 40 37 38 39 57 89 88 57 45 52 59 63 65 72
100 97 99 97 96 98 99 100 92 98 98 97 99 98 96 97 97 97 98 90 84 81 82 77 72 70 69 69 72 77 90 89 100 100 100 98 100 100 82 65 65 72 77 75
99 97 98 98 97 98 97 99 99 92 96 93 97 96 97 97 97 96 90 82 72 60 51 53 60 67 72 74 83 93 100 100 100 99 98 96 93 93 99 90 80 81 78 80
92 97 98 98 96 96 96 97 98 97 97 96 96 95 97 96 97 98 100 99 81 70 68 70 64 52 43 66 71 79 88 86 89 88 99 99 99 93 97 97 80 70 70 70
97 97 97 95 95 85 82 96 96 96 94 93 92 99 98 97 97 99 100 96 93 84 78 75 68 65 56 36 59 67 71 77 81 77 72 83 94 100 99 99 93 95 100 100
95 99 98 93 97 90 97 95 98 100 100 98 98 98 96 94 94 98 100 100 97 96 87 81 72 70 64 42 36 48 62 70 69 71 82 99 100 100 99 96 100 99 97 99
100 100 98 97 98 96 95 96 96 99 100 98 98 98 96 92 95 99 98 99 96 92 84 74 71 58 65 45 38 35 36 47 72 74 75 82 92 88 98 99 96 100 100 98
92 94 97 96 93 95 94 94 89 83 100 96 97 99 98 98 99 99 98 96 95 91 78 71 70 66 50 45 38 33 30 30 38 48 73 75 78 84 91 91 98 100 100 100
70 71 95 96 98 95 91 98 97 98 96 98 99 97 98 97 88 84 85 91 86 79 73 66 65 62 58 50 43 38 34 30 26 27 32 44 64 80 83 91 93 92 94 96
81 86 88 92 83 96 88 100 88 98 100 99 96 89 86 83 87 90 87 86 86 85 82 78 72 67 62 59 55 51 47 43 39 35 32 31 32 37 50 74 84 92 97 93
81 87 88 95 97 100 96 90 95 96 94 94 90 88 88 90 91 89 83 77 74 69 66 65 69 71 71 70 66 63 59 56 52 48 43 39 35 32 31 35 43 60 67 80
89 84 82 93 96 100 99 96 95 97 99 98 93 81 70 70 69 71 73 73 71 69 66 63 60 58 56 53 51 50 53 56 56 55 52 48 46 44 43 41 40 43 48 58
80 86 87 87 92 94 95 96 95 98 95 89 84 78 73 67 62 58 59 60 59 59 58 61 62 60 59 58 55 52 48 45 45 45 44 44 44 44 45 47 48 48 51 55
86 87 88 90 87 93 95 92 90 94 96 93 86 78 74 71 68 66 64 63 62 61 62 61 61 62 62 63 64 65 64 64 63 60 55 51 48 48 49 51 53 55 53 54

GFSCGP_700_rhum_117.txt.gz
RH
23 24 19 20 20 32 49 55 52 25 34 44 42 56 36 36 30 34 27 24 29 24 20 9 6 10 20 39 37 52 66 70 71 71 46 26 28 27 29 48 56 44 45 27
30 17 24 25 22 40 50 59 38 28 27 57 35 37 42 36 36 38 43 30 28 31 31 16 8 8 11 39 36 35 53 69 80 80 38 42 52 38 36 62 57 48 45 48
26 24 46 55 37 44 34 42 34 43 38 41 55 59 57 57 51 54 50 42 34 40 33 24 19 16 16 40 37 35 40 65 79 88 51 53 50 51 64 62 52 45 49 50
27 37 49 47 43 34 38 35 37 39 64 67 73 76 61 75 91 73 69 73 68 42 42 54 45 32 30 39 38 47 60 63 80 92 61 45 42 38 40 50 49 40 46 51
42 37 47 49 53 34 36 42 58 62 69 88 48 92 66 76 87 96 98 98 84 62 57 79 52 63 43 42 40 38 42 70 82 65 60 44 44 44 40 31 36 39 39 51
37 46 63 65 70 68 56 61 67 61 72 85 73 86 70 96 98 94 96 98 100 96 59 59 60 68 48 47 44 40 37 36 38 49 48 47 38 36 34 33 26 30 33 51
32 51 62 70 78 82 72 81 72 68 76 65 90 97 99 97 98 96 96 96 98 100 89 63 88 62 53 40 44 44 41 37 34 34 34 34 32 32 32 34 33 27 30 37
84 50 61 61 84 96 86 88 81 89 67 74 91 94 96 97 97 97 96 96 98 98 100 94 100 71 53 41 40 41 43 42 41 39 38 37 38 40 39 37 35 32 32 37
76 71 47 71 72 76 86 87 90 98 98 94 98 95 97 94 96 96 97 96 98 99 99 99 97 98 69 49 40 47 44 44 42 40 39 39 39 41 41 40 35 33 36 38
81 96 50 50 60 65 88 90 97 98 90 78 93 96 99 92 95 96 95 96 96 98 100 99 100 99 100 94 67 55 50 50 46 44 42 42 45 46 46 46 40 45 46 54
92 100 59 70 63 81 88 94 97 97 95 90 87 95 98 96 96 96 96 96 96 97 98 100 100 100 100 99 99 90 72 62 59 59 56 56 55 55 54 50 48 50 51 60
92 100 99 66 71 83 83 97 99 97 88 99 97 97 97 96 96 96 96 96 96 96 98 98 98 99 100 95 93 95 90 84 79 74 71 66 63 60 56 56 53 52 52 58
87 96 93 66 73 59 80 95 98 98 97 98 95 97 97 96 96 96 96 96 96 95 96 99 98 98 100 100 95 93 88 84 80 74 69 65 60 58 56 55 53 50 46 44
89 97 96 93 98 96 96 100 99 99 97 97 98 96 96 96 96 96 96 96 96 96 96 97 98 99 99 96 90 98 79 84 70 67 62 59 58 57 56 54 54 46 42 40
94 95 98 98 98 90 97 97 96 90 92 85 98 93 96 96 96 96 96 96 95 94 83 98 97 95 98 100 99 100 81 93 80 71 90 96 94 77 74 57 61 88 77 61
97 94 97 88 97 87 95 96 98 98 97 98 97 92 95 96 97 96 96 96 96 92 76 57 66 75 84 88 85 80 81 82 89 92 90 92 98 100 97 100 96 100 97 100
86 90 93 99 97 92 94 94 96 100 97 96 90 96 96 97 96 97 98 96 91 72 58 52 44 40 38 36 39 51 60 62 65 72 80 84 85 84 83 99 100 99 100 100
92 86 91 97 97 93 94 95 96 95 97 98 98 100 100 98 98 98 97 86 77 72 64 55 49 44 41 36 32 31 33 32 33 44 66 78 86 91 96 98 99 100 100 100
93 77 93 98 99 96 96 96 98 93 100 100 100 98 96 96 98 98 92 86 78 72 68 63 59 56 54 49 44 42 38 34 32 29 28 29 44 69 78 82 90 93 94 98
80 90 95 96 96 93 96 95 95 93 94 95 98 98 95 93 94 88 84 86 85 83 79 75 72 70 67 61 58 56 52 49 44 40 36 32 29 30 32 40 63 72 76 83
87 93 95 93 97 95 96 96 96 99 91 96 95 90 86 89 82 78 75 76 73 70 68 69 70 69 66 64 63 61 59 57 54 53 50 48 44 39 36 33 33 37 53 63
79 93 95 95 96 95 96 97 93 91 96 96 95 92 91 87 84 84 82 79 74 69 66 64 61 56 53 52 52 49 48 45 44 43 43 42 43 44 45 44 42 40 38 36
83 91 95 95 95 95 96 97 96 98 99 96 87 76 70 66 66 65 65 66 63 61 60 58 56 53 52 54 56 54 50 48 47 49 52 51 49 46 42 40 39 39 39 40
88 87 95 95 96 97 98 97 97 98 98 90 82 77 76 74 71 68 66 64 62 62 60 57 54 52 50 48 46 43 43 42 40 39 38 36 37 36 39 46 49 48 44 41
92 96 94 95 95 96 97 97 97 98 97 92 87 81 78 74 71 68 66 64 62 60 56 53 49 45 40 34 29 24 21 17 14 14 14 14 14 17 21 28 34 37 41 46
90 94 94 94 92 95 95 94 96 97 96 92 85 75 66 62 62 63 61 60 58 54 48 40 28 17 13 12 12 13 13 13 13 13 13 13 13 13 13 13 14 15 18 24

GFSCGP_700_rhum_120.txt.gz
RH
16 23 30 34 31 27 34 43 40 37 38 42 42 39 39 41 45 49 52 50 50 49 46 41 34 11 26 7 4 15 42 54 69 43 36 34 35 45 27 37 36 30 28 25
25 44 34 28 34 39 50 52 47 38 42 43 38 43 39 45 62 97 74 75 58 47 53 52 48 39 50 25 3 7 36 44 57 54 38 36 46 52 28 52 39 30 47 31
28 45 20 33 40 63 60 52 46 44 48 49 46 38 39 61 92 57 54 56 54 63 64 56 45 40 28 21 7 6 25 42 44 62 43 42 57 59 31 45 40 41 53 48
25 28 30 40 60 71 60 47 46 48 55 49 55 54 48 74 84 58 56 64 73 77 84 86 62 38 38 26 9 14 17 41 40 54 62 52 68 52 30 31 34 53 60 51
55 37 43 67 67 65 56 61 60 62 67 64 47 52 43 86 74 62 66 74 96 96 97 100 79 62 56 29 18 31 20 35 40 43 68 60 70 70 60 49 61 72 70 57
34 38 50 71 67 68 74 77 72 67 66 56 54 78 58 98 100 85 81 79 94 96 98 98 100 100 85 76 41 50 36 38 39 47 58 76 83 72 44 47 52 59 53 57
61 67 58 60 56 74 79 74 51 52 62 34 54 74 99 93 93 95 94 91 93 96 99 99 100 100 81 97 72 59 42 41 57 66 68 76 72 59 52 45 38 37 40 44
60 47 67 47 66 77 74 78 60 82 58 53 62 70 100 96 85 95 96 96 96 96 100 100 98 100 100 94 80 70 48 41 64 80 82 81 90 80 51 48 40 38 32 31
78 72 47 50 64 85 74 72 78 86 76 84 78 98 96 75 86 93 94 96 96 97 97 98 100 100 97 79 73 90 69 49 42 40 68 67 53 47 45 42 36 35 33 33
92 83 62 61 57 80 83 90 78 90 88 76 78 95 98 88 91 93 93 94 96 95 98 99 99 100 99 94 76 82 97 76 51 47 50 42 38 37 36 38 41 43 43 41
93 89 70 69 70 68 76 89 94 89 78 79 72 95 100 95 98 95 96 96 96 95 96 99 100 100 100 100 99 98 81 71 59 54 48 47 45 41 40 41 42 45 45 52
99 100 88 69 75 82 71 87 98 96 76 88 96 96 88 99 97 96 97 96 96 96 96 97 100 99 100 100 99 98 92 81 72 60 56 52 50 49 57 53 50 50 54 60
96 99 76 54 86 76 88 98 99 97 98 96 93 97 91 98 96 93 95 96 96 96 96 97 98 99 100 100 96 95 92 92 92 83 74 69 67 65 65 63 62 64 64 66
82 100 95 75 90 96 100 99 99 99 98 98 99 98 97 94 92 96 96 96 96 96 96 96 96 98 98 100 100 90 95 96 91 84 79 75 71 69 66 63 61 60 58 56
94 97 98 98 98 98 92 89 100 96 97 98 99 98 94 92 92 93 96 96 96 95 96 97 96 96 97 99 100 98 95 90 87 87 75 65 61 62 62 59 58 61 63 64
96 100 97 97 96 97 84 88 98 100 96 92 93 93 93 94 96 96 96 96 84 88 67 73 86 96 97 97 98 96 96 92 86 86 81 72 75 82 97 86 68 78 85 77
94 98 99 84 99 100 96 86 92 97 93 98 98 95 94 96 96 95 90 81 90 65 51 47 47 47 49 48 60 47 51 67 81 79 78 77 84 91 89 95 100 97 99 98
100 100 99 83 99 92 94 90 90 93 93 90 94 97 98 95 96 97 92 78 72 68 64 57 53 50 48 44 40 39 38 33 32 36 44 66 72 80 88 94 97 98 99 99
100 95 98 95 96 99 97 95 91 99 94 89 95 100 100 99 97 97 89 82 79 76 73 69 66 63 61 58 54 52 49 44 39 36 34 30 29 31 48 73 76 79 86 93
100 92 100 95 89 84 99 93 94 95 100 95 96 99 96 100 100 93 81 74 74 73 70 68 66 65 65 62 60 58 57 56 53 50 47 45 44 40 36 32 31 35 48 57
98 99 99 94 88 96 92 96 96 97 96 93 95 92 88 93 86 80 74 73 70 67 64 63 61 58 54 51 48 47 44 42 39 38 38 39 39 40 41 41 41 40 37 35
83 93 96 100 94 94 92 96 96 93 94 91 91 90 89 87 78 68 61 57 56 57 56 55 52 49 45 42 40 37 38 34 33 33 34 36 37 37 37 36 35 35 35 36
99 99 100 92 97 93 96 96 96 95 93 89 83 74 67 63 62 62 60 58 58 56 54 53 50 47 46 44 42 39 36 32 30 29 28 26 27 27 28 29 30 31 33 35
76 81 93 93 95 95 96 96 96 96 93 87 77 74 72 72 71 67 63 60 58 56 54 52 48 43 37 29 21 16 13 12 11 11 11 10 10 10 10 10 10 12 14 19
87 92 98 96 95 95 96 96 96 95 93 90 85 81 76 70 66 62 60 58 57 55 50 42 29 18 13 12 12 12 12 13 13 13 12 12 12 12 12 12 12 12 12 12
77 86 97 97 95 95 95 95 96 96 95 91 79 63 55 58 63 63 58 54 49 36 20 14 13 13 13 14 14 14 14 13 13 11 9 7 6 6 6 6 5 5 5 6

GFSCGP_700_rhum_123.txt.gz
RH
47 34 24 21 31 33 32 32 30 27 27 31 29 27 27 31 50 76 78 33 29 34 36 30 36 57 39 42 46 44 31 35 20 62 78 47 30 30 31 27 27 28 28 25
35 39 32 23 30 40 42 42 35 29 28 30 31 34 31 34 64 75 83 65 48 42 42 44 49 46 53 52 54 60 41 42 17 56 67 73 37 30 32 30 31 32 31 28
38 30 34 19 37 43 39 41 39 32 31 31 33 29 30 39 57 77 89 64 48 47 50 58 57 66 58 37 20 46 43 44 20 52 94 84 60 35 34 35 35 35 35 32
43 41 29 40 42 46 45 39 37 38 40 37 36 41 32 57 71 82 58 52 52 54 60 70 67 78 73 65 32 44 36 19 37 25 90 96 76 40 34 35 43 37 30 34
36 50 48 47 47 55 45 54 56 55 54 52 40 36 34 71 90 56 56 63 66 65 70 73 72 86 83 62 45 36 30 18 17 50 69 99 85 59 36 36 50 43 35 32
46 49 50 51 60 62 63 64 52 50 46 45 37 41 45 90 93 59 64 70 82 86 77 80 87 91 92 92 66 57 30 22 17 82 71 83 84 92 44 38 57 47 40 36
45 49 55 46 58 51 65 51 46 37 53 43 36 39 86 100 77 67 77 81 92 93 87 87 86 92 92 98 99 99 67 42 19 90 68 83 73 98 59 46 75 50 53 55
30 44 55 64 54 51 55 52 47 57 48 42 44 52 99 98 76 75 82 82 91 92 91 87 92 94 97 99 100 100 97 92 35 93 57 69 67 90 97 75 98 80 64 66
46 50 52 61 60 59 59 51 66 73 56 62 59 99 93 74 64 75 80 83 87 95 92 93 96 97 99 98 98 100 100 99 55 98 73 75 67 80 96 100 77 66 69 46
72 63 52 56 64 64 67 57 65 79 88 69 48 97 97 67 74 84 80 82 89 97 95 96 96 99 99 98 99 100 100 97 97 97 99 96 94 99 99 100 80 79 54 49
74 61 57 57 57 48 59 71 84 79 66 76 70 95 94 83 87 89 88 90 93 97 97 95 96 98 100 100 99 100 99 88 88 100 99 99 100 100 95 79 77 86 71 57
80 96 76 49 54 64 59 68 73 95 66 99 98 98 78 84 91 90 92 91 96 96 97 96 96 98 100 100 100 100 100 91 81 92 95 79 75 95 90 98 99 86 71 57
90 90 68 54 70 72 73 73 84 94 95 91 94 97 82 88 86 89 93 94 96 96 96 96 97 98 98 99 100 99 86 92 94 89 93 93 79 89 90 82 75 63 56 51
88 93 84 65 78 73 88 94 97 99 97 98 98 100 84 82 83 89 92 95 95 96 96 96 96 97 98 99 99 100 100 88 93 99 99 84 76 73 70 68 64 61 61 61
100 100 97 98 94 96 99 77 92 100 98 100 95 82 77 80 88 89 92 94 93 94 95 95 96 97 96 97 98 99 99 99 98 99 95 80 75 73 72 72 68 64 62 61
99 93 98 86 100 94 100 83 93 93 100 85 82 79 85 83 94 97 95 85 65 63 61 72 90 95 96 92 96 97 99 95 95 90 77 78 72 62 61 60 55 54 65 64
100 99 93 77 97 98 99 84 82 96 100 98 96 82 82 89 93 88 73 69 72 65 62 58 53 48 46 58 38 38 46 55 64 66 72 69 66 67 71 94 98 99 100 98
100 100 99 74 98 85 96 86 100 99 97 91 79 82 87 88 89 91 84 75 72 70 68 67 66 63 59 56 53 49 47 42 36 30 27 29 43 59 72 78 82 85 89 88
98 100 98 75 62 97 98 96 99 98 97 77 92 87 91 89 90 85 82 78 73 70 67 62 59 57 56 54 52 52 52 52 51 48 45 40 40 36 32 29 34 48 61 63
100 96 97 77 71 74 98 96 84 87 98 83 87 90 95 93 99 85 73 65 62 59 56 55 52 50 49 45 43 43 43 42 39 37 36 36 37 38 39 39 39 38 37 34
100 100 96 82 71 92 87 85 88 97 96 85 89 88 85 83 84 81 73 64 57 53 51 48 45 42 39 37 35 33 30 29 26 25 24 25 26 26 27 28 29 30 30 30
77 76 80 77 74 73 86 97 97 95 92 94 89 82 80 81 79 64 56 54 52 51 49 48 47 44 40 38 35 31 28 25 22 21 20 19 19 19 19 18 19 19 20 22
78 76 90 88 98 85 83 93 95 95 96 96 94 84 74 62 58 57 56 56 54 54 52 48 44 38 32 26 20 16 14 13 12 12 12 12 12 12 12 11 11 11 11 11
96 88 81 78 84 84 91 99 97 96 96 96 94 70 65 62 62 61 59 55 53 52 49 44 34 23 16 14 12 12 12 12 12 12 12 12 12 11 11 11 10 10 10 10
99 90 90 88 91 90 93 96 96 96 96 95 90 76 72 67 61 58 57 56 54 47 34 20 14 13 13 13 14 14 14 14 13 12 11 10 9 8 7 7 6 6 6 6
88 98 97 99 88 93 95 95 96 96 96 96 95 79 59 54 57 58 53 48 35 19 14 13 14 14 15 16 16 15 14 12 10 9 8 7 7 7 7 7 8 8 7 7

GFSCGP_700_rhum_126.txt.gz
RH
41 42 31 26 24 28 28 22 23 25 26 24 26 24 22 24 33 43 44 37 35 41 37 35 35 34 34 33 29 25 27 34 37 31 28 38 39 92 63 33 26 26 26 24
41 38 32 29 26 18 28 30 30 29 28 25 25 24 26 27 48 46 50 47 49 42 38 37 37 41 42 42 39 31 29 25 19 35 37 59 52 76 82 45 29 26 27 27
35 31 36 33 34 25 29 31 30 33 30 30 29 25 21 37 54 54 68 57 48 43 38 41 46 47 54 54 52 45 35 36 26 12 38 56 46 69 98 69 35 31 25 30
33 33 32 32 35 31 32 34 33 36 40 38 36 42 36 37 75 73 56 52 47 41 42 50 55 55 59 60 60 52 31 43 45 25 23 35 47 65 97 86 44 37 28 28
30 40 39 35 29 34 42 42 47 46 47 46 44 34 53 62 71 60 56 48 43 48 55 64 64 69 66 61 57 56 33 46 50 38 30 28 70 62 77 98 69 48 38 29
46 39 43 42 41 47 50 50 50 45 39 47 39 50 95 89 87 68 50 46 55 63 68 72 75 76 75 70 63 64 66 44 58 38 17 22 67 55 98 92 100 54 34 30
41 42 35 40 49 48 49 53 45 40 43 40 32 38 92 98 88 60 64 60 68 73 78 84 87 88 79 86 81 63 53 71 38 38 18 17 44 93 99 98 99 74 35 32
32 29 37 46 52 41 46 47 43 48 54 49 41 48 98 100 71 60 60 68 73 76 79 92 94 96 100 93 90 82 76 99 67 53 30 13 34 89 97 82 99 85 50 43
59 34 42 50 54 48 53 47 52 60 52 60 51 93 98 97 60 54 60 72 75 78 83 96 96 100 98 94 96 97 97 100 94 98 66 30 61 82 87 90 74 99 79 46
65 66 46 46 50 50 50 48 52 62 81 61 38 84 98 75 54 63 68 73 76 83 85 95 100 96 97 95 94 97 97 99 100 100 98 33 57 88 96 96 100 98 97 56
66 71 47 46 52 43 62 62 74 76 73 72 79 94 92 68 65 74 76 79 81 89 89 98 99 97 95 96 97 97 98 98 99 100 96 41 56 75 88 87 97 97 100 75
65 81 84 61 48 54 52 51 63 66 58 83 93 95 88 72 76 76 77 82 89 96 96 98 99 96 97 96 97 97 99 99 99 100 100 96 96 98 100 100 97 100 86 94
94 82 75 59 54 65 54 69 73 81 86 84 84 88 88 79 78 76 77 81 90 94 96 97 97 94 98 97 98 99 98 99 99 99 100 98 96 100 97 100 100 100 94 96
89 90 89 93 98 95 88 84 83 88 97 85 95 96 92 77 75 79 79 76 76 94 95 97 97 95 96 96 98 98 99 100 86 75 84 98 99 94 98 97 97 97 88 92
84 89 82 87 97 97 98 79 83 95 99 99 96 91 74 76 72 81 79 67 62 55 62 87 96 95 94 96 96 98 100 99 99 99 96 76 94 99 100 89 88 99 98 98
66 90 83 83 62 91 88 90 97 100 87 92 84 74 77 78 74 81 69 79 67 60 59 61 64 85 94 67 56 62 64 78 95 98 100 100 94 97 98 99 99 100 100 98
99 90 88 81 82 90 97 82 97 96 94 89 98 89 73 77 77 74 69 67 67 67 65 64 62 61 59 57 69 53 50 46 44 38 39 49 63 86 92 97 99 100 98 99
90 87 96 80 86 88 78 79 85 91 96 93 78 74 74 78 77 80 78 74 71 68 63 56 54 51 50 50 48 46 46 46 45 42 41 39 39 37 39 46 52 64 74 82
69 82 96 84 62 87 84 91 96 92 97 86 76 64 74 80 81 75 73 70 64 56 53 52 52 50 47 42 39 40 37 35 34 32 33 34 35 36 38 38 37 36 35 32
67 83 96 80 68 59 96 99 95 98 97 83 71 66 76 80 79 72 70 68 62 57 53 48 42 42 41 38 36 33 29 27 23 22 21 21 21 20 20 19 19 20 22 24
95 98 92 90 75 80 88 82 95 98 96 92 85 83 82 78 73 72 70 63 53 48 47 47 45 42 38 34 30 25 21 19 17 15 15 15 14 15 14 14 13 14 14 15
86 90 93 88 79 83 82 86 93 96 97 89 84 84 93 79 74 70 61 57 53 51 50 47 43 38 31 23 18 15 14 14 13 13 13 12 12 12 12 12 12 11 11 11
95 94 97 88 90 86 80 79 82 88 92 93 96 96 96 87 66 61 62 59 55 51 49 45 36 24 17 15 14 14 14 13 13 12 12 12 11 11 11 10 10 10 9 9
77 69 74 70 58 57 66 75 86 97 100 96 96 96 94 71 68 64 62 57 53 51 44 30 19 15 14 14 14 14 14 14 14 13 13 12 12 11 11 10 10 9 9 9
94 80 72 66 60 68 76 81 93 97 97 96 96 95 94 82 69 62 58 54 50 40 23 15 14 14 16 16 16 16 15 14 13 12 12 11 10 10 10 10 10 11 11 12
99 92 88 94 85 78 83 92 93 95 96 96 96 95 95 94 71 63 57 48 32 16 14 15 17 18 17 16 15 14 14 13 13 13 14 14 14 15 15 15 15 16 15 15

GFSCGP_700_rhum_132.txt.gz
RH
38 33 28 30 30 32 30 32 35 29 27 18 24 31 30 27 26 25 26 30 31 33 36 36 38 38 38 40 36 28 23 24 22 20 22 24 25 18 14 23 29 87 98 86
38 37 34 34 38 38 37 32 31 28 25 27 32 34 33 32 31 28 35 34 35 38 44 46 46 45 43 38 30 26 29 30 28 25 23 26 26 22 15 18 26 57 100 96
37 35 35 39 42 41 36 36 33 30 29 35 37 35 30 24 27 38 41 44 45 46 46 47 50 47 40 30 31 40 42 41 38 38 30 30 29 23 21 16 17 26 78 98
35 36 36 38 39 39 38 36 35 31 34 45 42 47 34 39 44 49 55 55 54 56 58 53 43 33 34 39 46 52 52 53 41 39 37 33 31 28 26 22 19 19 27 84
38 38 37 37 40 43 38 38 36 42 44 40 46 41 45 47 53 56 58 62 60 56 49 36 37 40 46 53 58 53 53 57 52 43 43 39 35 33 28 25 21 19 21 32
33 26 31 21 32 46 44 42 40 39 40 67 52 55 68 65 64 67 59 62 61 49 40 44 45 48 55 55 55 53 53 56 54 56 56 41 35 35 33 28 29 26 20 20
37 36 29 31 37 37 45 45 55 68 76 73 53 53 55 56 59 56 68 70 55 46 47 48 48 52 60 60 58 57 60 60 63 62 55 59 47 28 27 29 36 32 26 20
51 47 35 40 36 41 33 43 54 75 80 76 48 55 61 58 62 78 82 64 54 54 56 56 61 65 70 74 73 76 82 82 80 75 74 74 68 51 33 23 20 22 34 24
46 48 44 47 47 45 40 43 43 48 53 73 58 74 70 71 76 86 77 59 56 60 59 64 75 78 79 84 81 86 87 100 94 84 82 83 79 70 52 40 34 16 22 30
48 54 48 46 42 42 51 47 44 54 77 91 80 93 79 71 88 85 64 62 63 69 69 79 86 84 87 90 88 96 90 96 87 86 88 81 68 56 62 59 40 31 41 44
54 57 57 54 52 50 54 52 54 53 63 90 96 75 56 73 81 76 67 67 67 75 73 86 90 91 92 93 94 93 92 98 95 84 87 100 95 82 48 42 26 27 40 40
52 76 79 68 32 45 65 69 62 63 77 87 87 78 55 54 68 73 75 70 57 54 60 88 94 92 88 84 94 95 95 96 94 82 89 99 83 90 100 99 50 57 38 30
61 75 90 54 61 68 64 81 95 91 91 76 79 62 52 70 78 94 78 70 62 52 53 60 81 86 88 78 78 92 97 95 95 97 96 98 98 98 100 98 97 98 90 83
70 85 92 72 62 61 60 78 92 89 87 70 64 64 69 80 94 81 78 75 69 59 60 62 59 74 85 82 68 54 78 97 97 96 97 97 97 97 99 99 100 95 88 87
79 89 87 77 59 48 51 50 65 86 81 96 75 64 70 81 94 83 79 77 64 64 66 62 56 52 57 69 78 48 48 52 55 76 96 97 97 98 98 100 99 100 100 100
70 75 76 70 67 61 57 62 81 64 96 97 86 78 69 78 79 80 73 68 69 69 65 55 52 50 45 41 41 40 41 43 45 41 45 52 64 97 97 98 99 100 100 87
71 71 79 90 69 76 76 59 73 74 70 86 92 80 75 78 96 80 80 78 75 69 56 52 50 40 37 32 31 29 28 29 28 28 31 34 36 38 39 55 72 63 71 87
86 85 88 89 86 89 53 80 77 74 84 91 96 79 80 80 86 81 83 79 70 59 55 52 44 39 37 29 20 15 14 13 14 14 14 15 16 18 22 25 27 29 31 30
77 95 96 93 85 67 53 46 68 71 86 75 76 75 75 78 79 82 82 74 65 61 56 47 44 39 29 18 15 14 13 13 13 12 12 12 11 11 11 11 11 12 13 13
84 97 95 97 86 84 69 75 81 93 90 74 65 78 94 90 82 93 89 78 69 63 55 48 46 34 19 15 14 14 14 13 12 12 12 11 11 11 10 10 10 9 9 9
61 93 92 100 93 67 54 62 78 99 69 68 70 73 76 88 95 95 96 93 73 65 57 51 41 21 15 14 14 14 14 13 13 13 12 12 12 12 12 11 11 10 10 8
61 74 80 86 93 80 59 67 87 70 74 74 78 85 85 91 97 96 94 95 82 65 61 50 26 15 14 15 15 15 15 14 14 14 14 14 14 14 14 14 13 13 12 11
72 78 61 69 73 74 68 72 77 73 56 65 85 100 99 97 98 97 95 95 94 76 60 31 15 14 16 16 15 15 16 16 15 15 14 14 13 12 11 11 10 10 9 9
98 92 96 92 80 79 92 86 57 52 52 58 78 96 100 99 97 97 96 95 95 95 49 16 14 16 15 15 16 18 17 16 15 14 14 13 13 14 14 14 13 13 13 12
86 93 98 93 87 77 65 54 53 55 62 70 78 94 98 99 97 96 96 95 95 84 17 14 16 15 16 19 19 18 17 16 16 15 15 16 16 17 16 15 14 13 11 10
71 69 76 81 73 49 40 41 51 60 69 75 83 92 99 99 96 96 96 96 86 28 14 15 14 18 20 19 18 16 16 16 17 17 18 18 18 18 16 14 13 12 11 10

GFSCGP_700_rhum_135.txt.gz
RH
37 38 32 32 35 39 37 36 39 32 29 30 26 26 29 33 33 34 34 34 32 28 32 36 38 40 42 45 45 44 39 35 30 24 22 20 18 18 17 17 19 18 15 12
40 40 32 34 36 40 42 43 36 34 35 33 30 29 27 34 35 34 34 30 29 36 42 45 48 51 50 47 36 28 27 27 28 28 28 28 25 23 21 18 19 21 20 13
45 32 35 40 40 40 41 44 40 36 37 35 30 29 32 34 33 28 34 37 38 50 50 53 54 51 43 33 29 27 33 44 44 45 42 37 31 26 24 22 21 26 24 18
36 30 38 40 40 43 41 39 38 39 37 39 43 49 38 38 41 33 39 38 47 56 59 57 53 42 37 34 31 35 43 47 47 43 42 42 31 28 28 28 25 27 27 23
35 37 36 34 38 39 40 45 40 40 45 45 45 48 33 38 40 41 43 51 62 60 61 52 42 42 37 37 39 45 47 56 54 55 49 45 43 39 33 30 29 29 30 30
40 38 31 31 26 28 32 47 46 45 41 61 39 45 50 57 55 60 67 66 62 65 52 46 49 41 43 45 53 60 59 56 52 55 60 57 46 42 49 46 31 29 32 33
36 30 38 43 44 34 40 41 51 62 80 72 58 57 51 52 53 52 52 66 70 56 52 53 46 41 44 48 57 63 61 56 48 56 59 64 55 47 41 52 45 34 34 32
45 40 38 47 48 45 47 41 48 80 80 66 54 52 48 48 46 58 68 74 63 58 56 57 52 51 61 64 71 70 66 58 56 56 64 72 76 64 63 74 72 44 41 37
46 45 42 43 45 46 48 47 44 51 51 74 57 55 49 48 48 53 75 73 64 60 65 61 58 66 78 75 82 82 80 73 67 66 74 93 83 73 82 92 88 69 48 40
49 52 47 45 42 43 50 65 70 87 92 85 80 74 54 49 48 60 68 67 68 63 63 57 66 77 82 77 75 90 88 84 81 78 80 90 97 98 73 100 97 82 58 40
45 47 48 50 53 52 60 56 71 70 58 87 96 70 48 58 49 60 67 73 77 64 51 51 58 76 81 74 64 72 90 91 86 91 85 81 94 99 79 83 98 63 48 36
58 58 57 63 57 50 70 72 76 98 74 81 93 77 60 52 52 62 80 85 73 66 53 53 56 58 82 74 64 47 73 78 91 94 95 91 85 84 91 93 100 98 77 40
63 68 71 67 69 77 69 77 84 92 97 97 96 75 61 57 58 57 83 75 69 69 56 59 60 53 52 77 64 43 46 56 50 87 96 100 95 97 94 94 97 98 100 100
72 73 75 79 73 78 75 63 56 59 86 76 75 52 70 75 63 69 85 77 70 68 59 63 58 50 46 46 54 40 40 42 43 42 76 92 96 95 97 99 98 100 100 100
79 79 75 72 83 87 93 83 68 60 45 98 58 73 81 80 68 74 75 72 68 60 64 64 52 49 44 38 33 30 28 27 27 32 37 49 92 97 96 96 97 98 99 99
86 85 83 78 72 76 70 62 69 46 36 80 88 63 79 80 73 74 74 71 69 66 66 58 51 44 38 34 26 18 14 13 13 13 13 16 26 41 87 92 96 98 98 98
79 80 81 83 76 74 83 51 48 55 70 72 88 58 94 90 79 78 83 72 73 72 63 57 52 41 37 24 15 14 13 13 12 12 11 11 11 11 12 18 28 48 54 62
85 81 90 94 84 91 61 59 59 76 66 74 75 93 100 86 74 78 77 70 74 68 60 59 49 43 32 17 14 14 13 13 12 11 11 11 10 10 10 10 10 10 11 12
85 89 90 96 87 67 58 60 59 56 46 53 71 88 83 81 81 80 76 75 77 70 66 58 49 43 24 15 14 14 14 13 13 12 12 11 11 11 10 10 10 10 10 9
54 71 92 97 94 95 59 68 80 86 74 65 64 68 76 87 83 90 84 83 85 83 71 57 49 38 18 14 14 14 14 14 13 13 13 13 13 12 12 12 11 12 12 12
62 99 97 98 95 82 64 64 58 83 52 58 68 69 72 81 85 90 89 91 95 94 74 58 51 28 15 14 15 15 14 14 14 14 14 14 13 11 11 11 11 11 12 12
80 91 87 96 95 87 53 60 70 58 70 70 56 48 64 85 83 92 93 100 98 96 80 62 45 19 14 15 15 15 16 16 14 14 14 13 13 14 14 14 14 13 13 12
79 84 76 80 71 56 48 72 73 81 79 68 64 60 77 92 96 100 98 97 96 95 91 72 25 14 15 15 15 17 17 16 14 13 14 15 16 16 16 16 15 14 13 12
75 79 94 93 84 84 80 93 94 82 58 60 58 63 82 100 98 99 96 98 96 95 94 92 43 16 15 15 18 18 15 14 14 16 16 17 17 17 17 17 16 15 14 13
77 84 85 92 83 86 92 91 69 52 52 53 59 69 87 98 98 96 98 97 96 96 94 70 33 17 16 19 18 14 14 14 14 15 16 16 18 19 19 18 17 16 15 14
78 94 92 83 89 86 74 47 37 43 52 61 68 76 84 90 93 98 99 97 96 95 93 69 29 16 20 17 16 15 14 15 16 18 21 22 22 23 22 20 17 15 13 10

GFSCGP_700_rhum_138.txt.gz
RH
42 39 32 32 35 38 39 40 41 33 28 31 30 32 32 31 31 31 34 35 33 33 34 29 35 43 48 46 46 43 39 34 26 22 19 20 22 22 19 22 21 16 15 14
46 32 29 33 32 32 38 44 42 40 35 35 37 38 36 33 28 27 32 34 29 30 42 45 56 54 49 48 46 39 30 25 22 21 23 25 29 27 21 21 26 25 21 17
48 28 33 31 34 38 41 38 38 40 40 40 39 37 35 33 33 32 33 35 34 42 38 48 56 52 48 38 32 29 26 25 27 31 33 35 44 42 36 27 22 27 26 23
35 31 35 39 40 40 42 39 42 41 42 42 44 50 40 37 38 35 33 36 40 46 52 59 56 47 41 37 33 32 34 38 47 49 45 45 44 36 38 33 32 31 28 26
35 37 38 34 27 31 32 35 38 45 45 47 48 51 37 37 35 36 41 48 56 64 60 57 48 46 44 41 36 44 50 51 56 54 48 42 38 28 30 37 36 42 33 31
36 35 36 38 40 41 34 40 46 49 49 65 42 46 38 43 48 54 55 60 59 63 59 51 50 52 49 43 46 62 57 61 59 52 47 38 36 40 42 47 51 43 36 36
37 31 43 48 47 45 46 48 51 63 81 66 54 57 44 47 50 48 50 52 61 58 53 60 55 51 46 44 63 65 63 59 57 56 48 45 49 46 45 51 58 53 48 47
44 32 34 49 52 48 45 49 51 74 87 66 57 62 49 48 42 49 42 45 55 56 63 62 54 50 47 63 63 61 67 63 60 59 54 56 59 53 51 58 39 49 63 60
45 45 36 36 42 47 48 54 56 63 63 76 56 51 48 46 50 50 42 43 52 65 74 61 52 48 48 71 64 46 55 59 58 68 64 59 58 66 76 66 33 44 79 79
47 49 49 42 46 44 52 53 56 69 95 94 74 69 50 40 54 50 44 52 65 75 78 63 53 47 48 62 67 44 44 62 48 71 79 74 73 81 95 64 49 75 97 94
49 54 56 56 55 54 56 69 68 78 86 96 93 65 47 48 55 53 57 55 72 75 67 65 52 51 48 48 65 45 38 37 43 41 81 84 86 86 92 100 90 97 98 97
58 63 67 64 54 62 68 79 82 80 92 92 97 78 63 66 64 72 66 60 74 71 68 66 54 51 44 41 42 39 28 25 25 33 70 88 96 100 94 100 87 91 98 98
61 70 74 60 72 72 69 74 82 91 94 87 90 70 53 42 46 78 70 63 76 74 73 62 59 48 40 39 32 26 19 16 14 15 21 56 94 95 94 100 100 95 88 98
77 81 81 82 76 75 81 82 88 96 97 86 86 74 49 42 67 84 74 67 72 75 70 62 61 45 40 33 30 19 14 13 12 12 12 13 26 89 96 98 98 98 98 99
86 91 84 81 82 82 78 78 71 72 70 98 75 70 41 42 72 87 72 67 72 72 66 68 58 46 37 33 24 15 13 13 12 11 10 10 10 14 28 89 94 97 97 97
86 88 83 80 79 65 71 67 58 45 51 52 59 56 42 55 79 90 78 74 76 75 74 71 56 47 36 31 18 14 14 13 12 11 11 10 9 9 9 10 13 27 91 97
99 96 92 90 79 76 84 38 47 55 48 49 70 63 89 81 90 87 77 80 77 79 77 66 57 47 38 27 16 14 14 13 12 12 11 11 11 11 11 10 10 9 10 13
79 95 95 95 94 93 56 61 66 64 64 73 61 61 84 93 90 74 74 76 77 80 76 66 60 48 40 24 15 14 14 13 13 12 13 13 13 13 14 13 12 12 12 11
67 88 98 96 92 74 65 64 60 66 49 54 54 47 70 84 77 77 82 82 81 82 77 74 65 49 39 20 15 14 14 14 13 14 14 13 12 12 12 12 11 11 11 10
67 92 97 96 95 91 59 65 68 52 46 42 53 63 68 79 76 92 83 89 91 93 86 84 68 52 33 17 15 14 14 14 15 15 13 13 14 14 14 13 12 12 11 10
69 66 70 73 98 89 69 66 68 74 46 45 62 67 65 68 71 72 83 94 99 99 96 94 69 52 23 15 15 15 15 16 16 14 14 14 15 16 15 15 14 13 13 12
75 73 94 92 96 88 66 70 76 67 66 64 67 70 66 70 75 78 92 96 99 97 95 96 74 40 16 15 15 15 17 17 15 14 16 17 18 17 17 16 15 15 14 14
80 67 71 91 72 60 81 87 68 69 76 76 79 78 79 73 78 93 97 99 98 95 98 98 85 29 28 25 16 17 17 14 15 16 16 16 16 17 17 17 17 17 16 15
76 76 82 89 76 82 91 94 91 96 96 99 67 57 62 68 70 97 100 99 98 99 99 98 93 78 54 44 22 18 15 14 14 15 17 19 20 22 22 21 20 20 19 17
79 81 86 89 74 79 78 92 95 92 92 82 55 57 61 66 81 94 98 98 98 97 98 98 92 71 66 44 19 16 14 14 16 20 24 27 29 29 28 27 25 23 20 18
74 82 90 92 87 95 88 88 82 53 50 50 51 63 68 73 84 99 99 99 100 98 97 91 88 87 34 20 17 15 16 18 21 24 29 34 36 33 30 28 25 23 18 14

GFSCGP_700_rhum_141.txt.gz
RH
34 28 35 26 26 32 36 39 38 31 32 36 30 30 33 37 36 35 32 29 28 30 33 34 28 35 39 53 47 43 39 31 28 25 22 19 18 18 18 20 20 21 25 22
35 32 28 28 30 33 35 35 33 34 35 39 36 35 36 37 36 34 33 33 35 37 38 39 48 46 56 50 46 37 33 30 25 21 20 21 22 25 27 31 28 26 33 32
48 39 31 29 33 38 38 37 39 39 39 39 39 39 34 33 32 31 35 38 37 41 42 51 54 57 52 45 40 36 33 29 28 28 32 34 35 39 40 35 31 33 33 26
30 31 36 37 35 32 27 26 37 40 43 44 44 40 39 36 29 29 30 34 37 46 56 62 59 52 44 44 43 40 34 31 37 47 50 49 44 39 36 32 28 26 26 21
34 35 37 35 39 40 42 34 39 39 49 51 52 53 40 37 34 41 42 46 51 57 59 61 46 51 53 48 44 39 39 42 52 52 50 48 45 40 33 31 30 30 32 34
29 34 34 36 40 47 45 45 41 44 47 53 46 50 46 36 41 48 47 49 46 54 60 52 52 61 54 47 43 40 48 50 54 53 54 51 44 36 29 33 40 35 31 36
32 34 41 43 47 47 44 47 50 53 63 48 56 58 47 44 47 50 51 48 42 51 51 55 68 59 51 45 40 40 49 44 49 50 42 54 44 40 46 47 49 48 40 28
41 42 40 35 45 46 48 49 48 70 60 51 56 55 53 46 43 49 54 51 46 47 49 63 69 60 51 46 40 43 43 31 23 27 40 59 49 43 52 62 66 56 38 28
43 39 46 38 40 50 50 55 57 60 61 75 60 51 50 49 49 51 55 50 54 53 53 71 69 59 50 48 38 42 38 22 17 16 35 64 52 54 71 57 42 32 34 40
47 48 42 43 46 48 52 49 59 63 82 71 63 74 54 45 49 61 54 67 71 55 64 66 66 58 53 45 36 36 27 17 14 13 16 66 68 64 73 73 68 72 88 94
56 54 56 59 50 50 44 58 70 72 73 77 77 65 54 56 65 63 57 61 76 59 73 71 71 58 54 42 35 27 18 14 12 12 12 42 56 77 71 80 77 65 77 80
55 52 57 60 55 50 66 78 85 84 87 97 98 76 56 63 50 38 44 72 81 67 75 74 68 59 53 41 31 24 16 13 12 11 10 12 25 83 78 87 86 85 94 76
44 54 68 50 60 81 82 83 84 88 92 97 85 67 54 53 51 58 43 54 81 73 73 71 61 63 50 40 31 19 14 13 12 11 10 10 10 19 49 94 96 98 82 65
41 69 78 66 67 72 80 86 89 88 99 87 91 72 58 55 60 56 60 70 81 71 72 68 65 64 49 40 30 16 14 13 12 11 10 10 10 9 10 25 81 97 100 96
52 81 83 84 78 70 60 64 58 68 63 93 45 70 35 49 57 63 67 85 79 76 74 71 70 62 51 40 26 15 14 13 12 12 11 11 11 11 10 10 9 23 88 95
86 82 83 84 81 70 74 71 56 45 42 46 48 58 42 55 88 80 86 89 82 80 77 76 73 61 52 41 23 15 14 14 12 12 13 13 12 12 12 12 12 11 10 23
74 88 89 84 83 83 82 50 49 59 62 66 72 60 76 83 92 91 92 79 78 83 78 78 72 63 54 41 21 15 14 14 13 14 14 13 12 11 10 11 12 12 12 12
51 51 88 88 97 77 50 50 48 54 50 69 66 54 64 64 97 96 81 75 78 81 79 78 73 70 55 40 20 15 14 14 14 15 14 13 12 12 12 12 11 11 11 10
58 73 94 96 81 72 70 51 56 74 59 53 49 44 71 82 92 77 79 83 85 87 84 84 80 80 60 36 16 15 14 14 15 15 14 13 14 14 14 13 13 12 11 10
66 85 98 97 90 72 58 61 60 73 76 55 46 52 63 78 80 83 78 83 87 93 92 94 94 93 65 30 15 15 14 16 16 15 14 15 16 16 15 14 14 14 14 13
66 74 88 92 99 83 59 68 84 94 68 72 70 71 74 71 75 68 68 80 84 90 95 97 97 94 64 20 15 14 16 17 16 14 16 17 17 17 16 16 16 16 16 15
68 74 85 98 100 83 65 69 88 84 91 90 92 95 89 82 80 80 71 83 88 92 96 100 99 88 38 14 25 16 18 17 15 17 16 16 17 18 20 20 19 19 19 18
83 63 64 72 64 64 72 76 76 90 96 96 95 95 99 74 80 86 82 91 94 96 99 98 98 82 20 19 57 36 36 16 16 16 19 22 25 26 27 27 26 24 22 20
79 74 78 78 65 67 88 96 93 97 96 95 98 100 99 66 61 67 82 98 98 98 98 98 97 65 63 60 80 83 24 16 16 20 25 28 32 33 32 30 28 26 24 22
67 78 80 80 66 79 79 89 94 85 95 76 67 69 57 56 63 73 100 100 99 98 98 98 98 96 80 87 48 19 16 18 20 23 27 35 38 37 34 32 30 29 26 24
56 70 82 71 76 95 85 95 75 72 86 72 49 48 52 64 71 82 97 100 95 96 98 99 86 73 86 29 20 19 20 20 20 21 30 41 42 40 38 35 34 32 28 24

GFSCGP_700_rhum_147.txt.gz
RH
34 40 25 22 35 35 27 25 23 21 22 27 27 27 25 42 35 32 30 30 31 32 32 32 34 36 36 34 46 53 52 39 32 30 32 29 21 19 19 22 26 24 24 24
37 29 27 34 35 33 29 26 24 23 28 34 26 25 25 33 32 46 55 57 36 32 34 34 35 36 45 54 56 42 35 42 43 38 30 23 20 20 21 26 32 35 33 28
33 26 34 34 30 33 28 28 27 26 24 27 26 27 22 32 34 30 28 34 33 35 37 36 44 48 52 52 39 39 48 47 41 32 26 25 22 20 21 24 30 35 36 33
34 34 42 33 32 32 26 31 34 29 26 23 28 25 20 31 39 28 27 28 32 35 40 45 44 47 46 39 49 55 51 45 37 29 28 21 18 20 21 25 34 33 32 31
32 36 36 34 30 36 25 40 33 31 31 28 25 25 22 34 41 54 32 32 37 42 42 35 40 41 44 44 49 54 50 43 33 30 21 15 15 18 27 38 37 39 44 44
36 38 36 31 37 37 38 37 34 34 36 34 24 24 22 28 40 45 56 42 45 49 46 43 42 50 50 47 53 54 48 38 32 23 16 13 11 18 27 44 42 54 58 59
31 33 34 30 36 43 40 30 28 25 33 31 32 32 26 45 50 46 39 45 50 54 55 47 56 60 54 49 56 54 47 31 22 15 13 11 9 13 30 51 50 52 54 61
26 28 35 42 33 32 33 32 26 28 30 27 26 25 31 41 41 38 44 50 53 60 55 58 61 63 54 57 62 54 40 26 17 13 12 10 8 9 21 51 55 57 55 50
24 22 43 40 38 32 30 32 41 44 35 35 30 27 38 41 44 43 48 54 54 55 52 40 45 60 56 62 62 52 34 22 16 13 12 9 8 8 10 32 56 63 70 74
38 42 39 41 44 36 35 31 36 34 54 41 23 24 33 64 59 56 53 58 48 51 55 52 42 44 63 66 59 50 32 22 15 13 12 9 9 9 9 11 62 66 78 88
40 45 30 42 37 27 34 40 35 34 36 43 46 37 67 56 52 50 53 50 53 58 50 44 53 65 68 69 60 47 31 20 15 13 12 10 10 10 10 10 31 72 79 90
44 47 40 29 34 36 44 42 35 35 39 39 65 66 60 66 76 45 48 53 59 58 58 54 63 74 71 66 62 46 32 20 15 14 12 11 11 12 11 11 12 46 76 90
51 28 32 22 29 48 53 47 53 57 59 62 74 59 55 66 74 73 69 65 66 68 65 66 82 82 73 67 63 46 32 20 15 14 12 12 12 11 11 11 12 14 24 59
25 28 32 29 25 35 42 44 47 47 56 60 56 48 42 45 48 52 55 64 78 65 72 73 93 84 75 71 62 47 32 20 15 14 13 12 12 11 11 11 10 11 13 26
50 49 42 42 42 43 40 43 47 46 47 47 45 44 42 43 52 56 73 78 75 85 82 78 97 90 77 75 62 50 33 19 15 14 14 13 12 12 12 11 10 10 10 11
52 66 64 67 60 50 48 53 57 56 56 56 55 49 48 46 81 81 51 66 79 90 90 96 92 89 80 75 64 52 33 18 15 14 14 14 13 13 13 12 11 10 9 8
63 74 67 56 41 39 42 45 50 51 50 47 44 39 44 56 72 79 79 56 78 95 84 83 88 83 81 74 68 55 32 17 14 15 15 14 15 15 14 14 14 12 11 10
63 69 63 51 47 53 45 54 44 45 44 40 42 63 90 67 70 62 67 78 93 92 85 87 85 83 82 78 75 59 28 16 15 16 16 15 16 16 16 16 16 15 14 13
58 61 57 54 46 40 40 41 45 48 52 50 71 77 82 64 57 55 80 98 91 87 86 84 85 87 88 87 84 57 23 15 16 16 16 17 18 17 18 18 19 19 18 16
60 71 66 62 60 51 39 46 60 68 55 91 89 96 96 98 95 96 96 94 89 81 73 75 83 90 94 94 88 43 20 15 17 16 17 18 18 20 23 24 24 23 22 20
73 67 68 64 66 58 45 59 55 63 73 95 89 92 100 97 95 89 87 91 93 91 83 85 87 93 95 95 79 29 16 18 17 17 17 18 22 26 28 28 28 26 25 23
55 61 66 66 66 61 51 63 64 69 88 94 97 100 91 95 94 96 91 81 90 92 84 89 93 96 96 91 55 19 26 25 37 22 17 22 27 31 33 32 31 30 29 27
45 43 46 48 58 63 68 78 79 78 86 96 93 89 95 96 94 93 93 72 74 88 94 95 96 96 95 81 33 16 43 57 50 17 20 25 32 36 37 37 36 35 34 32
52 52 57 67 72 71 71 76 80 85 96 81 83 95 83 76 70 65 60 59 72 94 97 98 97 96 94 65 20 42 71 76 20 19 22 25 35 41 43 43 41 40 38 35
70 83 82 76 75 79 84 87 98 94 100 81 95 80 72 71 64 54 50 60 74 93 99 97 97 97 92 49 50 81 59 20 20 20 20 28 40 47 48 49 46 44 41 39
79 78 83 76 84 90 94 70 62 68 80 88 96 82 58 69 69 53 51 71 79 96 99 97 97 98 98 96 87 80 22 21 21 20 20 24 35 45 51 50 48 49 44 42

GFSCGP_700_rhum_153.txt.gz
RH
44 53 42 33 34 33 28 32 30 25 22 18 21 25 26 26 25 33 36 38 38 34 24 22 24 29 30 31 33 26 30 38 37 35 29 30 36 36 27 20 17 16 15 17
52 54 37 32 32 31 29 28 24 20 13 18 23 25 24 24 27 33 39 43 45 36 27 23 23 29 32 28 25 30 41 43 40 38 34 37 39 30 22 17 15 12 14 15
61 54 33 35 31 31 31 30 24 26 25 24 24 22 19 17 20 32 45 46 50 32 27 28 33 36 35 34 34 41 49 45 44 41 39 44 36 23 16 14 12 10 11 11
56 45 42 27 31 30 34 26 29 28 28 29 26 25 19 18 24 36 44 47 50 40 35 34 40 44 45 45 44 52 48 45 46 44 41 44 31 17 14 13 10 7 7 10
46 31 32 31 30 34 29 29 29 28 28 23 20 26 24 25 31 41 43 45 35 32 36 31 46 46 49 51 51 46 40 34 38 42 48 36 21 15 14 12 8 6 6 14
56 44 36 33 32 30 29 27 28 19 26 46 30 35 42 40 35 43 44 41 46 43 36 43 48 46 52 50 46 42 40 35 32 45 46 30 19 15 14 12 8 6 7 15
40 36 37 35 32 30 30 26 40 50 55 50 32 36 51 47 46 43 44 50 46 46 48 47 50 49 49 46 40 29 25 38 44 52 43 28 19 15 14 12 8 8 7 14
44 39 38 36 32 26 29 32 44 44 64 48 33 32 59 53 50 54 58 51 44 42 42 46 49 50 51 52 50 36 27 48 56 55 42 27 18 15 14 11 9 8 7 10
30 30 30 32 32 29 27 28 27 34 38 43 36 35 62 60 53 48 52 49 50 46 52 53 46 45 51 48 46 37 40 60 62 55 40 26 18 16 14 10 9 8 7 12
35 31 32 32 34 33 25 24 29 32 56 58 37 33 39 49 61 60 56 51 46 43 44 51 56 54 54 53 58 57 62 71 64 53 38 25 19 16 14 10 9 9 8 8
37 33 30 35 38 38 34 30 28 29 30 67 77 47 55 62 64 61 55 59 66 63 63 57 61 60 61 63 71 68 80 72 65 52 36 26 18 15 13 10 10 10 9 8
42 39 41 39 32 35 28 29 30 41 48 46 51 50 51 54 57 58 54 52 58 56 53 57 70 74 72 84 84 74 82 71 66 50 36 26 18 15 13 11 12 11 10 9
46 43 51 43 32 33 32 32 33 35 34 43 61 47 55 60 53 51 44 41 44 51 52 58 61 63 72 86 96 86 85 75 64 51 38 28 19 15 13 12 13 13 12 10
46 43 40 36 31 30 38 42 44 50 82 64 59 50 46 48 47 40 40 47 50 55 66 71 55 61 74 96 95 96 95 81 62 50 37 23 16 15 13 13 14 14 14 13
46 44 40 37 30 29 29 30 35 37 36 43 39 46 47 48 40 46 61 65 65 64 67 70 62 71 87 92 89 82 84 72 65 59 42 22 16 15 14 15 15 15 15 15
46 37 31 22 17 20 21 20 18 21 24 31 30 39 32 48 56 66 56 55 55 50 59 61 83 82 78 84 86 79 79 73 69 56 33 19 16 15 15 16 16 17 17 17
50 40 49 56 37 39 52 43 35 36 39 40 46 40 43 54 57 56 58 57 48 51 58 65 90 82 76 78 79 80 80 77 74 54 26 17 16 16 17 18 19 21 21 21
52 47 52 57 56 75 44 27 31 34 39 42 45 47 50 63 59 61 60 56 68 76 80 93 84 82 70 71 82 82 85 82 76 47 21 17 16 17 18 20 24 24 25 24
74 60 62 62 65 57 37 43 42 41 44 44 49 58 66 81 78 74 55 62 71 74 78 77 76 70 76 78 84 89 86 88 70 36 20 17 16 18 21 25 27 28 28 28
57 53 48 59 60 72 38 41 58 55 55 56 56 55 53 56 60 55 61 65 77 80 86 90 87 88 78 77 91 92 92 88 54 27 19 18 17 19 24 29 32 32 32 33
46 52 53 58 64 62 48 25 45 62 58 61 66 61 59 51 43 57 61 76 82 77 72 78 85 80 78 83 91 96 95 87 42 20 22 23 26 24 28 33 36 38 38 38
58 73 59 61 69 78 47 40 62 67 78 79 81 78 65 50 74 67 65 74 66 62 66 74 75 77 83 86 87 93 92 68 30 25 39 48 33 24 32 39 42 43 43 42
58 61 77 61 62 60 62 61 64 64 88 82 71 45 47 55 53 60 78 75 65 58 60 59 63 73 91 89 86 89 82 48 23 41 68 41 22 26 41 47 48 48 47 46
42 50 57 55 61 57 83 78 71 84 69 72 76 60 50 46 53 62 81 74 68 57 68 62 70 92 100 95 93 96 76 38 31 69 55 21 21 29 37 46 49 49 49 48
61 62 60 57 62 62 64 69 76 75 78 77 73 69 46 47 57 71 81 68 73 72 65 63 80 98 100 97 96 97 75 36 58 79 23 21 20 22 26 28 31 33 36 40
64 88 79 79 67 67 68 66 68 83 92 85 74 69 48 56 66 77 78 90 84 80 64 73 83 92 99 99 98 95 72 72 90 28 22 21 20 21 22 22 22 21 20 21

GFSCGP_700_rhum_156.txt.gz
RH
40 49 36 33 34 36 36 35 31 26 27 26 24 19 22 24 26 28 29 30 30 30 31 30 24 20 19 23 27 30 33 35 37 39 38 40 38 32 30 32 26 19 15 12
44 48 35 37 40 37 34 32 31 29 23 21 24 24 27 27 25 23 28 30 32 32 34 33 22 18 25 32 34 36 40 41 42 42 38 41 42 35 33 29 18 13 12 11
41 37 46 51 49 38 34 32 31 30 28 23 26 26 25 22 19 26 39 40 41 41 43 33 25 29 34 40 40 40 44 44 44 39 31 31 37 40 28 17 14 13 12 10
54 51 44 38 43 42 38 32 30 29 29 29 27 30 25 21 14 15 30 40 45 45 44 36 36 40 45 47 47 49 47 46 43 38 36 29 36 39 27 18 14 14 12 8
55 54 38 43 36 32 31 32 32 28 29 29 27 23 21 27 29 32 34 42 46 48 42 41 40 44 47 50 50 47 46 43 42 27 24 37 43 37 25 17 15 14 10 7
71 69 56 47 36 34 35 34 30 30 27 34 25 22 27 38 40 42 46 48 49 45 49 48 44 50 54 50 48 49 49 47 46 31 29 45 49 36 24 17 15 14 10 7
73 74 72 62 52 36 31 30 35 46 50 45 30 36 37 44 44 44 45 49 52 62 58 43 47 54 50 46 46 45 36 35 32 30 46 55 48 33 22 17 16 14 9 7
49 46 36 36 53 38 32 30 34 59 65 44 34 36 52 56 47 47 47 48 53 55 50 52 53 48 49 52 49 44 45 42 47 54 63 60 46 31 21 17 16 13 9 7
45 35 34 37 32 38 33 32 30 40 42 47 35 42 46 60 56 53 52 59 54 50 47 47 48 56 53 45 49 57 58 62 63 70 68 59 43 28 20 17 15 12 8 8
50 46 34 32 36 34 30 29 31 32 52 53 41 37 43 53 62 56 59 58 54 52 56 51 53 46 44 53 59 66 69 77 74 77 68 57 40 27 20 17 14 11 9 9
50 47 34 37 36 34 32 34 30 35 31 66 76 41 32 45 62 64 59 54 50 46 45 45 46 45 56 62 72 70 73 88 82 76 69 53 37 27 20 16 13 11 10 10
40 40 39 34 35 39 39 38 34 34 43 44 44 49 49 55 56 54 50 50 47 43 45 50 51 56 65 71 65 80 92 97 90 81 74 48 35 25 18 15 12 12 12 12
46 43 44 45 42 39 41 37 33 35 36 39 56 51 51 61 60 55 53 48 40 42 49 52 60 71 74 62 62 92 99 97 95 93 86 50 32 21 17 15 13 14 14 14
60 46 44 49 43 32 39 38 43 45 46 51 50 46 64 59 53 50 49 44 41 45 54 63 69 77 74 68 72 76 83 91 85 75 61 44 27 19 16 14 14 15 16 16
78 60 45 45 41 30 29 31 31 36 41 43 41 44 42 38 38 38 38 43 56 62 58 51 57 69 62 77 76 74 81 86 80 70 63 50 29 18 16 16 16 16 18 19
81 87 66 63 50 36 29 26 27 30 28 18 14 14 18 33 45 43 48 62 55 52 46 48 55 54 62 81 77 74 75 82 79 74 68 41 23 18 16 16 18 19 22 23
77 83 77 59 56 48 50 44 26 12 12 18 21 20 40 47 51 55 62 54 57 52 46 58 70 80 89 82 75 67 79 83 83 78 65 31 19 17 16 18 21 24 25 26
68 61 49 47 51 73 43 30 30 25 24 33 33 42 44 50 50 51 50 54 56 44 58 68 74 74 81 76 72 75 86 82 87 83 56 25 18 17 17 20 25 28 29 29
71 68 55 56 58 43 46 35 38 44 43 43 43 47 54 54 54 55 56 45 45 41 59 79 85 82 80 83 82 76 89 90 90 82 45 22 18 17 19 25 29 32 33 34
73 65 69 81 66 75 49 33 23 45 54 53 44 53 56 62 60 55 48 50 44 47 69 72 86 92 82 79 76 80 91 94 94 77 35 20 20 21 24 28 33 35 37 39
71 86 92 83 62 54 45 38 46 47 47 47 60 71 72 61 46 37 39 44 47 62 70 77 74 70 70 81 81 82 91 95 90 60 25 24 36 40 28 32 38 42 44 43
56 66 67 70 68 70 43 37 36 27 45 70 71 64 62 55 39 38 39 40 44 68 70 63 76 76 80 79 88 92 91 90 76 39 25 39 51 28 27 39 47 49 49 48
50 55 59 59 57 51 52 60 69 75 75 72 71 73 70 60 54 42 43 48 52 72 67 67 68 66 74 81 92 92 94 88 61 26 36 68 40 24 30 41 48 49 48 46
48 43 48 57 62 55 54 56 62 80 89 86 81 74 66 62 59 44 42 50 63 81 73 67 74 65 67 78 86 90 94 85 45 30 65 59 22 21 26 32 33 30 28 26
63 60 58 69 69 70 64 71 78 80 76 71 72 79 79 75 74 47 52 57 70 85 78 79 77 64 71 83 89 91 90 86 44 53 82 37 21 20 21 22 22 22 22 22
64 63 66 70 72 75 86 76 87 93 89 89 93 82 74 66 55 49 58 65 71 69 74 83 74 74 85 96 96 94 94 76 62 85 65 23 22 22 24 25 28 33 49 30